GEFSNGP_500_meanwind_036.txt.gz
Wind_Speed
12 12 11 12 13 14 13 12 10 10 12 13 15 19 22 25 28 30 33 34 32 27 24 21 20 20 20 21 23 26 29 32 36 38 39 41 41 40 39 38 37 37 38 38
13 12 11 11 12 12 10 9 8 8 10 12 15 18 22 24 26 28 29 29 26 20 15 11 11 12 13 15 17 20 23 26 29 31 33 35 35 34 33 33 33 34 34 34
12 11 11 10 10 9 7 6 7 8 10 12 15 17 20 22 23 25 26 25 23 18 12 7 4 4 7 9 12 16 19 22 25 27 28 29 29 29 28 29 29 30 31 32
12 11 10 9 8 7 6 6 7 8 10 12 15 17 19 20 22 22 22 21 20 17 12 8 5 5 6 8 11 14 17 20 22 23 24 24 24 24 25 25 26 29 31 35
12 11 10 8 7 7 6 6 7 8 10 12 15 16 17 18 19 19 19 18 18 16 13 10 7 7 8 10 12 14 17 19 20 21 20 21 21 22 23 24 26 30 33 36
12 11 11 9 8 7 6 6 6 7 9 11 13 15 16 16 16 15 16 15 14 14 13 12 10 9 10 11 12 13 14 15 16 15 17 18 18 20 23 25 28 31 33 35
13 13 12 11 9 8 7 6 6 7 8 10 12 13 14 14 14 13 12 12 12 12 12 12 11 11 11 11 11 10 10 11 10 11 13 15 17 20 22 24 26 29 31 34
15 14 14 12 10 9 7 6 6 7 8 9 11 11 12 12 12 11 11 10 10 10 10 10 10 10 9 9 8 7 7 6 6 7 9 11 13 15 18 21 25 29 32 35
16 15 14 13 12 10 8 7 6 7 8 9 10 10 11 10 10 9 9 9 8 8 8 8 9 9 8 7 6 5 3 1 2 4 7 10 13 16 19 23 26 30 33 37
16 16 15 14 13 12 10 8 7 8 8 9 9 10 10 9 9 8 8 8 7 6 6 6 7 7 7 6 5 4 3 3 5 8 10 13 16 19 22 26 29 32 35 38
18 17 17 16 15 13 12 10 9 9 9 9 9 9 9 9 9 8 7 7 6 5 4 5 5 5 5 5 6 6 7 9 11 13 16 18 20 23 26 28 31 34 38 41
20 20 18 17 17 15 14 12 11 10 10 10 10 10 10 10 9 8 8 7 6 5 4 5 5 5 6 8 9 11 13 14 16 18 20 22 24 26 28 31 33 37 41 45
21 21 20 19 18 17 16 14 13 12 12 11 11 10 10 10 10 9 9 8 7 6 6 6 7 8 9 11 13 15 17 19 20 21 23 24 26 28 30 33 36 40 45 50
21 22 21 21 20 19 18 17 16 15 14 13 12 12 11 11 11 10 10 9 8 8 8 8 9 11 13 15 17 19 20 21 22 23 24 26 28 30 32 36 41 45 49 54
22 22 22 23 22 21 20 19 18 17 16 15 14 13 12 12 12 11 11 10 10 10 10 11 13 14 16 18 20 21 22 23 23 25 26 27 29 32 36 40 44 49 53 58
22 22 23 23 23 22 21 20 19 18 17 16 15 14 14 13 13 12 12 12 12 12 13 14 15 17 19 20 22 23 23 24 25 26 28 29 32 35 39 43 47 52 56 59
21 21 22 23 24 23 22 20 19 18 17 17 16 16 15 14 14 13 13 13 13 14 15 16 18 19 21 22 23 24 24 25 26 28 29 32 34 38 42 46 50 54 57 60
19 20 21 22 23 23 22 20 20 19 18 18 17 17 17 16 15 15 14 14 15 16 17 18 20 21 22 23 24 24 25 26 27 29 31 34 37 40 44 48 52 55 58 58
18 19 19 21 21 21 21 21 21 20 20 19 18 18 18 17 17 17 16 16 16 17 19 20 21 22 23 24 25 25 26 27 29 31 33 36 39 42 46 50 53 56 57 53
16 17 18 19 20 20 20 21 21 21 21 20 20 20 19 19 18 18 18 17 18 18 20 21 22 23 24 24 25 26 27 28 30 32 35 38 40 44 48 51 54 55 52 45
14 14 15 17 18 19 20 20 21 21 21 21 21 21 21 21 20 20 19 19 19 20 21 22 22 23 24 25 26 27 28 30 32 34 36 39 42 46 49 52 54 53 46 38
13 14 14 15 16 17 18 19 20 20 21 22 22 22 22 22 21 20 20 20 21 21 22 22 23 24 25 26 27 28 30 31 33 35 37 40 44 47 51 53 53 48 40 32
13 14 14 14 15 16 16 17 18 19 20 20 21 21 22 22 21 21 21 21 22 22 22 23 24 25 26 27 28 29 30 32 34 36 38 41 45 48 52 53 50 43 34 27
14 15 15 15 15 15 16 17 18 19 20 21 21 21 21 21 21 21 21 22 22 23 23 24 25 26 27 28 29 30 31 33 34 36 39 43 46 50 52 52 45 36 28 23
18 18 17 17 18 18 18 18 18 19 20 21 21 22 22 22 22 22 23 23 24 24 25 26 26 27 28 29 30 31 32 33 35 37 40 44 48 51 51 48 40 30 24 21
23 22 22 21 21 20 20 20 21 21 21 22 22 22 23 23 24 25 26 26 26 26 27 27 28 28 29 30 30 31 32 34 35 38 41 46 49 50 49 43 34 26 22 21
27 27 26 26 26 25 25 25 25 24 24 24 24 24 24 25 26 27 27 27 27 27 28 28 28 29 29 30 30 31 32 34 36 39 43 46 49 49 45 38 30 24 22 22

GEFSNGP_500_meanwind_042.txt.gz
Wind_Speed
15 15 14 14 14 13 14 14 14 15 16 17 16 16 17 18 19 21 22 23 24 26 29 31 34 36 35 32 29 28 26 25 24 25 27 29 31 34 37 40 42 43 43 44
14 14 14 14 14 13 13 13 13 13 14 14 14 14 15 17 18 19 20 20 22 24 26 27 30 31 29 26 24 22 19 18 17 18 18 19 21 23 26 29 31 33 35 36
14 14 13 13 14 13 13 13 12 12 12 13 13 13 14 15 17 17 18 19 20 21 23 25 27 27 25 23 21 19 16 14 12 10 9 11 13 15 17 20 23 26 28 30
15 14 14 13 14 14 13 13 12 11 11 11 11 12 13 14 15 15 16 17 18 19 20 22 23 23 21 20 19 16 13 12 9 7 5 5 7 9 12 15 17 20 23 25
16 15 14 14 13 13 13 12 12 11 10 10 10 11 12 13 14 15 15 16 16 17 18 20 20 19 18 18 16 14 12 10 8 6 3 1 4 6 9 12 14 17 20 22
17 16 16 14 14 13 13 12 11 10 10 9 9 10 11 12 13 14 15 14 15 16 16 17 17 16 15 15 14 13 10 8 7 6 4 2 1 3 6 9 11 14 18 21
18 17 16 15 14 14 13 12 11 10 10 9 9 10 11 12 13 14 14 14 15 15 15 14 14 13 12 13 13 12 11 10 8 8 5 3 1 3 5 7 11 14 16 19
20 19 18 16 16 15 14 12 12 11 10 9 10 10 11 12 13 14 14 14 14 14 13 12 12 12 11 11 12 12 11 10 9 9 8 5 4 5 6 8 11 13 16 18
21 20 19 18 18 17 16 14 13 12 12 11 10 11 11 12 13 13 13 13 13 12 11 11 10 10 10 11 11 11 11 10 10 9 9 7 8 9 10 11 13 15 18 20
21 21 21 20 19 19 18 16 15 14 13 12 12 12 12 13 13 13 13 12 12 11 10 10 9 9 9 10 10 11 12 12 12 11 11 11 12 13 13 15 16 18 20 23
22 23 23 21 21 20 20 19 18 17 16 14 13 13 13 14 13 13 13 12 12 11 10 9 9 8 9 10 11 12 13 13 14 14 14 15 15 16 17 18 19 21 24 26
23 24 24 23 22 22 21 21 20 19 18 16 15 15 14 15 14 13 13 13 13 12 11 10 10 9 10 11 12 13 15 15 16 17 17 17 18 18 20 21 22 24 27 30
24 24 24 24 24 24 23 22 21 21 20 19 18 17 17 16 16 15 14 14 14 13 12 11 11 11 12 13 14 15 17 18 19 19 19 19 20 21 22 23 25 27 30 34
24 25 25 26 26 26 25 24 23 22 22 21 20 20 19 18 18 17 16 15 15 14 14 13 13 13 14 15 16 18 19 20 21 21 21 22 23 23 25 27 28 31 33 36
25 25 25 26 27 27 27 26 25 24 24 23 22 22 21 20 19 18 17 17 17 16 15 15 15 15 16 17 18 20 21 22 23 23 23 24 25 26 28 29 31 34 36 39
25 25 25 26 27 27 28 28 28 27 25 25 24 24 23 22 20 19 19 18 18 17 16 16 17 17 18 19 20 21 23 23 24 25 25 26 27 28 30 32 34 36 38 41
24 24 25 25 26 27 27 28 28 28 27 26 25 25 24 23 21 20 20 19 19 18 18 18 19 19 20 21 22 23 24 24 25 26 27 28 29 31 32 34 36 38 40 43
23 24 24 25 26 26 26 27 28 28 27 27 25 25 24 23 22 22 21 21 20 20 20 20 20 21 21 22 23 24 25 26 27 28 29 30 31 33 34 36 37 39 42 45
21 22 23 24 24 25 25 25 26 26 27 27 26 25 25 24 23 23 22 22 22 22 22 21 21 22 22 23 24 25 26 27 28 29 31 32 33 34 35 37 38 40 43 47
18 19 20 21 22 22 23 23 24 24 25 26 26 26 25 25 24 24 23 22 22 22 22 22 23 23 23 24 24 25 27 28 29 31 32 33 34 35 37 38 40 42 45 48
16 16 17 19 20 20 21 21 22 23 24 24 25 25 25 25 24 24 23 23 23 23 23 23 24 24 24 25 25 26 27 29 30 32 33 34 35 36 37 39 41 44 47 50
15 15 16 17 18 18 19 19 20 21 22 23 23 23 23 24 24 24 24 24 23 23 24 24 24 24 25 25 26 27 28 30 32 33 34 35 36 37 38 40 42 45 48 50
14 14 15 16 17 17 18 18 19 20 20 21 21 22 23 23 24 24 24 24 23 23 24 24 24 25 25 26 27 28 30 31 32 34 35 36 37 38 39 41 44 46 49 50
16 16 16 17 17 18 18 18 19 20 20 21 21 21 22 23 23 24 24 24 24 24 25 25 25 26 26 27 28 30 31 32 33 34 35 36 37 39 40 42 45 47 49 49
18 18 18 19 19 20 20 20 20 20 21 21 22 22 22 23 24 24 25 25 26 26 26 26 27 27 28 29 30 31 32 33 34 34 35 36 38 40 41 43 46 48 48 48
20 20 20 21 21 21 22 23 23 23 23 24 24 24 24 25 25 25 26 26 27 27 28 28 29 29 30 30 31 31 32 33 34 35 36 37 39 40 42 44 46 48 48 47
24 24 23 23 23 23 24 24 25 25 25 25 26 26 26 26 27 27 28 28 29 29 29 29 30 30 30 31 31 32 33 34 35 35 37 38 39 41 43 45 47 48 48 46

GEFSNGP_500_meanwind_048.txt.gz
Wind_Speed
17 17 18 19 19 19 19 19 19 19 19 19 18 18 18 19 19 19 20 21 22 22 21 21 22 22 23 24 24 25 26 28 29 29 30 30 29 29 27 27 26 25 25 27
17 18 18 18 18 18 17 17 18 18 18 18 16 16 17 17 17 17 18 19 19 19 19 20 20 21 21 21 21 22 23 24 25 25 26 25 24 23 21 19 18 16 16 17
17 18 17 17 17 17 17 17 17 17 17 16 16 16 16 16 15 15 15 15 16 17 18 19 19 19 20 20 20 20 20 21 22 22 21 21 20 19 17 16 13 11 11 10
17 17 18 16 17 16 16 16 16 16 16 16 16 15 15 15 14 14 14 14 15 16 16 17 18 18 18 18 17 17 17 18 18 18 18 18 17 16 15 13 11 9 8 6
17 17 17 16 16 16 16 16 16 16 16 16 15 15 15 14 14 13 13 13 14 15 15 16 16 16 16 16 16 15 15 15 15 15 16 15 15 15 13 12 11 9 7 7
19 18 18 17 17 16 16 17 16 16 16 16 16 15 15 14 14 13 12 13 13 14 14 15 15 15 15 14 14 14 13 13 13 14 14 14 15 14 13 12 11 11 9 9
20 20 19 18 18 17 17 16 16 16 16 16 16 15 15 14 13 13 13 13 13 13 13 14 13 13 13 13 12 12 12 12 12 13 14 14 15 15 14 13 12 12 11 11
22 21 20 19 19 18 18 17 16 16 16 16 16 16 15 14 13 13 12 13 13 13 13 13 13 13 13 12 12 11 11 12 13 13 14 15 15 15 15 14 14 13 13 14
23 22 21 21 20 20 19 19 18 17 17 16 16 16 15 15 14 13 13 13 13 13 13 13 13 13 12 12 11 11 11 12 13 14 15 15 16 16 16 15 15 15 16 17
24 23 23 22 22 22 21 21 20 19 18 18 17 17 16 16 15 14 14 14 13 13 13 13 13 13 13 12 12 12 13 13 14 15 16 16 16 17 17 17 17 18 18 19
24 25 24 23 23 22 22 22 22 21 21 20 19 18 17 17 16 15 15 14 14 14 14 14 14 14 14 14 14 14 15 15 16 17 17 18 18 18 18 19 20 20 21 22
24 25 25 24 24 24 23 23 23 23 23 22 21 20 19 18 17 17 16 16 16 16 16 16 16 16 16 16 16 16 17 17 18 18 19 19 19 19 20 21 22 22 24 25
24 25 25 25 25 25 25 25 25 24 24 24 23 22 21 21 19 19 19 18 18 18 17 17 17 17 18 18 18 18 18 19 19 19 20 20 21 21 22 23 24 25 26 28
24 25 25 25 25 25 25 26 26 25 25 24 24 24 23 22 22 21 21 20 20 20 19 19 19 19 19 19 19 20 20 20 20 21 21 22 22 23 24 25 26 27 29 30
23 24 25 25 25 25 26 26 26 26 26 26 25 25 24 24 24 23 23 22 22 21 21 21 20 20 20 20 20 21 21 22 22 23 23 23 24 25 26 27 28 30 31 33
22 23 24 24 25 26 26 26 27 27 27 27 27 26 26 26 26 25 25 24 24 23 23 22 22 21 21 21 22 22 23 23 24 24 24 24 25 26 27 28 30 31 33 34
21 22 23 24 24 25 26 26 27 27 27 27 27 27 27 27 27 27 26 25 25 24 24 24 23 23 23 23 23 24 24 24 25 25 25 26 26 27 29 30 32 33 35 36
21 21 22 23 23 24 24 25 25 26 26 26 27 27 28 28 28 28 27 26 26 25 25 25 25 25 25 25 24 25 25 25 26 26 26 27 27 28 30 31 33 35 36 37
20 21 21 21 22 23 23 24 24 24 25 25 26 26 27 27 28 28 27 27 26 26 26 26 26 26 26 26 26 25 25 26 26 27 27 27 28 29 31 32 34 36 37 39
18 19 19 20 20 21 22 22 23 23 24 24 24 25 25 26 26 27 26 26 26 26 26 26 26 26 26 26 26 26 26 26 27 27 27 28 29 30 32 33 35 37 38 40
17 17 18 18 19 20 20 21 21 22 22 23 23 24 24 25 25 25 25 26 26 26 26 26 26 26 26 26 26 26 27 27 27 27 28 29 30 31 33 35 36 38 39 41
16 16 17 17 17 18 18 19 19 20 21 21 22 22 23 23 23 23 24 25 25 26 26 26 27 27 27 27 27 27 27 27 28 28 29 30 31 33 34 36 37 39 40 42
14 15 15 16 16 16 17 18 18 19 19 20 21 21 22 22 22 23 23 24 25 25 25 26 27 27 28 28 28 27 28 28 29 29 30 31 33 34 35 37 38 40 41 43
15 15 16 16 16 16 17 17 18 18 19 20 20 21 21 22 22 22 23 24 24 25 26 27 28 28 28 28 29 29 30 30 31 32 32 33 34 35 36 38 39 41 42 43
17 16 16 16 16 17 17 18 18 19 20 20 20 21 22 22 22 23 23 23 24 24 25 26 27 28 29 29 30 31 31 32 32 33 33 34 35 36 37 38 39 40 42 44
19 19 19 19 18 18 18 19 19 20 21 21 21 22 22 23 23 23 24 24 24 25 26 27 28 29 29 30 31 31 32 32 33 34 34 35 35 36 37 38 39 40 42 44
23 23 23 23 23 22 22 22 21 21 22 22 22 22 22 22 23 24 24 25 25 25 26 27 28 28 29 30 31 31 32 33 34 34 35 35 36 36 37 38 39 40 42 43

GEFSNGP_500_meanwind_054.txt.gz
Wind_Speed
18 18 20 21 22 23 23 23 24 24 25 24 24 24 25 25 26 26 26 27 27 26 26 26 27 27 28 28 28 28 28 28 28 29 29 30 30 31 31 31 31 32 32 33
18 19 20 21 21 21 21 22 22 23 23 23 23 23 23 24 24 24 24 24 24 24 24 25 25 25 25 26 26 26 26 27 27 28 28 29 29 29 29 29 29 30 30 30
18 19 20 20 19 20 20 21 22 22 22 23 22 21 22 22 23 23 23 23 23 23 23 23 23 23 23 23 24 24 25 25 26 27 28 29 29 28 27 27 27 27 27 27
19 19 19 17 19 19 19 19 20 20 21 21 20 20 21 22 22 22 22 21 21 21 21 20 20 20 21 21 22 22 23 24 24 25 26 26 26 26 26 26 25 25 25 25
19 19 18 17 17 18 18 18 19 19 19 19 19 20 20 21 21 21 20 20 19 19 19 19 18 18 18 19 20 20 21 22 22 23 23 23 23 23 23 24 23 23 24 24
19 19 18 16 17 18 18 18 18 19 19 19 19 20 20 20 20 20 19 19 18 17 17 17 17 17 17 18 19 19 20 21 21 21 21 21 21 21 22 22 22 23 23 23
19 19 18 17 17 18 18 17 17 18 18 19 19 19 19 19 19 19 19 19 18 17 17 17 16 17 17 18 18 19 19 20 20 19 19 19 20 20 21 22 22 23 23 23
20 20 18 18 18 18 17 17 17 17 18 18 19 19 19 19 19 19 19 18 18 18 17 17 16 16 17 17 18 18 18 19 19 19 19 20 20 21 22 23 23 23 23 23
21 20 19 19 19 19 19 18 18 18 18 19 19 19 19 19 19 19 19 18 18 18 17 17 17 17 17 17 17 18 18 19 19 19 20 21 22 23 23 24 24 24 24 25
21 21 21 21 20 20 20 20 19 19 19 19 20 20 19 19 20 20 19 19 18 18 18 17 17 17 17 17 18 18 19 19 20 21 22 23 23 24 25 25 25 25 26 26
23 23 23 22 22 22 22 22 21 21 21 21 21 21 20 20 20 20 20 20 19 19 18 18 18 18 18 19 19 20 20 21 22 23 23 24 25 25 26 26 27 27 28 28
24 25 25 24 24 24 24 24 24 24 23 23 23 23 23 22 21 21 21 21 20 20 20 20 20 20 20 20 21 22 22 23 23 24 25 25 26 27 27 28 28 29 29 30
25 25 26 25 25 26 26 26 25 25 25 25 25 25 25 24 24 23 23 23 22 21 21 21 21 21 22 22 23 23 24 24 25 25 26 27 27 28 29 29 30 30 31 32
26 26 26 25 26 26 26 27 27 27 27 26 27 27 26 26 25 25 25 25 24 24 24 23 23 23 23 24 24 25 25 26 26 27 27 28 29 29 30 30 31 32 32 33
26 26 26 26 26 26 27 27 27 27 27 28 28 28 28 27 27 27 26 26 26 26 26 26 26 26 25 26 26 26 27 27 27 28 28 29 29 30 31 31 32 32 33 34
25 25 26 26 26 26 27 27 28 28 28 28 28 29 29 29 29 29 29 28 28 28 28 28 28 28 28 28 28 28 28 28 28 28 29 29 30 31 31 32 33 33 34 35
24 24 25 25 25 26 26 27 28 28 28 29 29 29 30 30 30 30 30 30 30 30 30 30 30 29 29 29 29 29 29 29 29 30 30 30 30 31 32 33 34 34 35 36
24 24 24 25 25 25 26 27 27 28 28 29 29 29 30 30 30 30 30 30 30 30 31 31 31 31 30 30 30 30 30 30 30 31 31 31 31 32 33 34 34 34 35 36
22 23 23 24 24 24 25 26 26 27 28 28 29 29 30 30 30 30 30 30 30 31 31 31 31 31 31 31 31 31 31 31 31 31 31 32 32 33 34 34 34 35 35 37
19 19 20 21 22 23 24 24 25 26 26 27 27 28 28 29 29 29 30 30 30 30 30 31 31 31 31 31 30 30 31 31 32 32 32 33 33 34 34 34 35 36 37 38
17 17 17 18 19 20 21 22 23 24 24 25 25 26 27 27 28 28 28 29 29 29 29 29 29 30 30 30 30 30 31 32 32 32 33 33 34 34 34 35 36 37 38 40
16 16 17 17 18 19 20 21 21 22 23 23 24 24 25 26 26 27 27 27 27 28 28 28 28 29 30 30 30 30 31 32 32 33 33 34 34 34 35 36 37 38 39 40
15 16 17 17 17 18 19 20 20 21 22 22 23 23 24 25 25 26 26 26 27 27 27 27 28 28 29 29 29 30 31 31 32 33 33 34 34 35 36 37 38 39 40 41
15 15 16 16 17 18 18 19 19 20 21 22 22 23 23 24 25 25 25 25 26 26 26 26 26 27 27 28 29 30 30 31 31 31 32 33 33 34 35 37 38 39 40 41
17 17 17 18 18 18 19 19 19 19 20 21 22 22 22 23 23 24 24 25 25 26 26 27 27 27 27 27 28 29 29 30 30 31 32 32 33 34 35 37 38 39 40 41
20 20 19 19 20 20 20 20 20 21 21 21 22 22 23 23 24 24 25 25 26 26 26 27 27 27 27 27 28 28 29 29 30 31 31 32 33 35 36 38 39 40 40 41
24 24 24 24 24 23 23 23 23 23 23 24 24 24 24 25 25 25 25 26 26 26 26 26 26 27 27 27 28 28 29 30 31 31 32 33 35 36 37 38 39 39 40 41

GEFSNGP_500_meanwind_060.txt.gz
Wind_Speed
17 18 19 20 21 23 24 24 25 24 24 23 25 26 26 25 26 27 29 30 31 32 33 34 34 33 33 33 32 32 32 33 33 33 33 33 32 32 32 32 32 32 32 33
17 18 20 21 21 21 21 22 22 23 22 22 24 25 25 26 26 27 28 28 28 29 29 29 29 29 29 29 29 30 30 30 30 30 30 29 29 29 29 30 30 31 31 32
18 19 20 19 19 21 21 21 22 21 20 23 24 24 24 25 26 26 27 27 27 26 26 26 26 26 26 26 27 27 27 27 27 27 27 27 27 27 27 28 28 29 30 29
20 20 20 18 20 21 21 21 22 20 21 23 23 23 23 24 24 24 25 25 25 25 24 24 24 25 25 25 25 25 25 25 25 24 25 25 25 25 25 25 26 27 27 28
20 20 19 18 19 20 20 20 21 20 21 21 21 21 21 22 22 23 23 23 24 23 23 23 23 23 23 23 23 23 23 23 23 22 22 23 23 24 24 25 25 26 26 27
21 20 19 18 18 18 18 18 19 19 19 20 20 19 19 20 21 22 22 22 23 23 23 23 22 22 22 22 22 22 21 21 21 21 21 22 22 23 23 24 24 25 26 27
21 21 19 18 18 18 18 17 18 19 19 19 19 19 19 20 20 21 21 21 22 22 22 22 22 22 21 21 21 20 20 20 20 20 21 21 22 22 22 23 24 26 27 28
21 21 18 18 18 18 17 17 18 18 18 19 19 19 19 20 20 20 21 21 21 22 22 22 22 22 21 21 21 20 20 20 20 20 20 20 21 22 23 24 25 27 28 29
20 20 19 20 19 18 18 18 18 18 18 18 18 18 19 20 20 20 20 21 21 21 21 22 22 21 21 21 20 20 20 20 20 20 21 21 22 23 24 25 27 28 29 30
20 20 21 21 20 20 20 19 19 18 18 18 18 18 19 19 19 20 20 21 21 21 21 21 22 22 22 21 21 20 20 20 21 21 21 22 23 24 26 27 28 29 30 31
21 21 21 21 21 21 21 21 20 20 20 19 19 19 19 20 20 20 21 22 22 22 22 22 23 23 22 22 21 21 21 21 21 22 23 24 25 26 27 28 29 30 31 32
23 23 22 22 22 22 22 22 22 22 22 21 21 21 21 21 21 21 22 22 22 23 23 23 24 24 23 23 23 23 23 23 24 24 25 26 27 28 29 30 31 32 33 33
26 25 25 24 24 24 24 24 24 24 24 23 23 23 23 23 23 23 23 23 23 23 24 24 24 25 25 25 25 25 25 26 26 26 27 28 29 30 30 31 32 33 34 34
28 27 27 26 26 26 26 25 25 26 26 26 26 26 26 26 26 26 26 26 26 25 26 26 26 26 27 27 27 27 27 27 28 28 29 30 30 31 32 32 33 34 34 35
28 28 27 27 27 27 27 27 27 27 27 27 27 27 27 27 27 27 27 28 28 28 28 28 29 29 29 29 29 29 29 30 30 31 31 31 32 33 33 34 34 35 35 35
27 27 27 26 26 26 27 27 27 27 27 28 28 28 28 28 28 28 29 29 29 29 29 30 30 31 31 31 31 31 32 32 32 33 33 34 34 34 34 34 35 36 36 36
24 24 25 26 25 25 26 26 27 27 28 28 28 29 29 30 30 30 30 30 30 30 30 31 31 32 32 33 33 33 33 33 34 34 34 35 35 35 35 35 36 36 37 37
20 21 22 22 23 24 24 25 26 27 27 28 29 29 30 30 30 31 30 30 30 31 31 32 32 32 33 33 34 34 34 34 34 35 35 35 35 35 36 36 37 37 37 38
18 20 20 21 22 23 23 24 25 26 26 27 27 28 28 29 29 30 30 31 31 31 31 32 32 32 32 33 33 33 34 34 34 34 35 35 35 36 36 36 37 37 38 39
15 17 18 20 21 21 22 23 23 24 25 25 26 27 27 27 28 28 29 29 30 31 31 31 32 32 32 32 32 33 33 33 33 34 34 35 35 36 36 36 37 38 39 39
14 15 16 17 18 19 20 21 21 22 23 24 24 25 26 26 27 27 28 29 29 30 30 30 30 31 32 32 32 32 33 33 33 33 33 34 34 35 36 36 37 37 38 38
13 14 15 16 17 17 18 19 20 20 21 22 22 23 24 25 25 26 26 27 28 28 29 29 30 30 31 31 31 31 31 31 31 32 33 33 33 34 35 35 35 36 36 37
15 15 15 15 15 16 17 18 18 19 19 19 20 20 22 22 23 24 25 26 26 27 27 28 29 29 30 30 30 30 30 30 31 31 31 32 33 33 34 34 34 35 36 37
16 16 16 16 16 17 17 17 18 18 19 19 19 20 20 21 22 23 24 25 25 26 27 28 28 28 28 29 29 30 30 30 30 30 31 31 32 32 33 33 34 35 36 37
18 19 19 18 18 17 17 18 18 19 19 20 20 20 20 21 22 22 23 24 24 25 26 27 27 27 27 28 28 29 30 30 30 30 31 31 32 32 33 34 35 35 36 37
22 21 21 21 20 20 21 21 21 21 20 20 20 20 21 21 22 22 22 23 24 25 26 26 26 27 27 28 28 28 29 29 30 30 31 32 32 32 33 33 34 35 36 38
25 25 24 24 24 24 24 24 24 24 23 23 23 23 23 24 24 24 24 25 25 25 25 26 26 27 28 28 28 28 29 29 30 30 30 31 31 32 33 34 35 36 38 39

GEFSNGP_500_meanwind_066.txt.gz
Wind_Speed
22 23 23 24 25 27 28 28 28 25 25 23 25 27 28 29 29 30 31 32 33 34 36 38 40 41 41 42 43 43 43 43 43 43 42 42 41 41 40 39 38 37 37 36
22 24 25 25 25 26 27 27 27 26 22 22 27 30 30 29 29 30 30 32 32 33 34 35 37 38 39 40 40 41 41 41 40 40 40 39 38 37 37 36 35 34 34 33
24 25 26 25 23 26 26 26 26 25 22 25 27 29 30 30 30 30 30 31 32 33 33 33 34 35 36 37 37 38 38 38 37 36 36 35 34 34 34 33 32 32 31 30
25 26 26 23 23 25 25 24 25 25 24 25 26 27 27 28 28 29 29 30 30 31 31 32 32 32 33 33 34 34 34 33 33 32 32 32 32 32 31 30 30 30 29 29
26 26 25 24 24 24 24 23 25 25 24 25 26 25 24 26 27 29 30 30 30 30 30 30 30 30 30 30 30 30 30 30 30 30 30 30 30 29 29 28 28 28 28 28
26 27 25 24 24 25 25 25 25 25 25 25 25 24 24 26 27 27 28 28 28 28 28 28 28 28 28 28 28 28 28 28 28 28 28 28 28 27 27 27 27 27 27 27
26 26 25 24 24 24 25 24 24 24 24 24 24 24 25 25 25 25 25 25 26 26 27 27 27 27 27 27 27 27 26 26 26 27 27 27 26 26 26 26 26 26 26 26
26 26 24 23 24 25 24 24 23 23 23 22 23 23 24 24 24 24 23 24 24 25 25 25 25 25 26 26 26 26 26 26 26 26 26 26 26 26 26 26 26 25 25 26
25 24 23 23 23 23 24 23 23 22 22 22 22 22 22 22 23 23 24 24 24 24 24 25 25 25 25 25 26 26 26 26 26 26 26 26 26 26 26 26 26 26 26 26
23 23 24 23 23 23 23 23 23 23 23 22 22 21 22 22 22 22 23 24 24 23 24 24 24 25 25 25 25 26 26 25 26 26 26 26 26 26 26 26 26 27 27 28
23 23 24 24 24 24 24 23 23 23 23 23 22 22 22 22 22 22 22 23 23 24 24 24 24 24 25 25 25 25 26 26 26 26 26 26 26 26 27 27 28 28 29 30
23 23 24 25 25 25 25 24 23 23 23 24 24 23 23 23 22 22 22 22 23 23 24 24 24 25 26 26 26 26 27 27 28 27 27 27 27 27 28 29 30 30 31 32
25 25 25 25 26 26 26 26 25 24 24 25 25 25 25 25 24 24 24 24 24 24 24 24 25 26 26 26 26 27 28 28 28 29 29 29 29 29 30 30 31 32 32 33
27 27 27 27 27 28 28 27 27 27 26 26 27 27 27 27 26 26 26 26 26 26 27 27 27 27 28 28 28 28 29 29 29 30 30 30 30 30 31 31 32 32 33 34
27 28 29 29 29 30 30 29 29 28 28 28 28 28 28 28 28 28 28 28 29 29 29 29 29 29 29 29 30 30 30 30 30 31 31 31 32 32 33 33 33 34 34 35
26 28 28 29 29 29 30 30 29 29 29 29 29 29 29 29 29 29 29 29 29 30 30 30 30 30 30 30 30 31 31 31 32 32 33 33 33 34 34 34 35 35 36 37
24 25 26 27 28 29 29 29 29 29 28 28 28 29 29 30 30 30 30 30 30 30 31 31 31 31 31 31 31 32 32 32 32 33 33 34 35 35 35 36 36 36 37 38
19 21 22 23 24 25 26 27 27 28 27 27 28 28 28 29 29 30 30 31 31 32 32 32 32 33 33 33 32 33 33 33 33 33 34 34 35 35 35 35 36 37 37 38
15 16 16 17 18 19 21 22 24 26 26 26 26 27 28 28 29 29 30 31 31 31 32 32 32 32 33 33 33 33 33 33 33 33 34 34 34 34 35 35 36 36 37 37
14 14 14 15 16 17 18 19 21 22 24 25 26 26 26 27 28 28 29 30 30 30 31 31 31 31 32 32 33 33 33 33 33 34 34 34 35 35 35 35 36 36 36 37
15 15 15 16 16 17 18 19 20 20 21 22 23 23 24 24 25 26 26 27 28 29 29 30 30 31 31 32 32 33 33 33 34 34 34 35 35 35 35 35 35 36 36 37
17 17 17 17 17 17 17 18 19 19 20 20 21 22 22 23 24 25 25 26 27 28 28 29 29 30 30 31 32 32 32 33 34 34 34 34 35 35 35 35 35 35 35 36
19 19 19 19 19 19 19 20 20 19 19 19 20 21 22 23 23 24 24 25 26 26 27 28 28 29 30 31 31 32 32 32 33 33 33 34 34 34 34 34 34 34 34 34
21 21 21 21 21 21 21 21 21 21 21 21 20 21 21 21 22 22 23 23 24 25 25 26 27 27 28 29 30 31 31 31 32 32 33 33 33 33 33 33 34 34 34 35
23 22 22 22 23 23 23 23 22 22 21 21 21 21 22 22 23 23 24 24 24 24 25 25 26 26 27 28 28 29 30 30 31 31 32 32 32 32 33 33 33 34 34 35
26 25 24 24 24 24 24 24 24 24 24 23 24 24 24 24 24 24 24 24 25 25 26 26 27 27 28 28 29 29 29 30 30 30 31 31 32 32 33 33 34 34 35 35
29 28 28 28 27 27 27 27 27 27 26 26 26 26 26 27 27 27 27 27 27 27 28 28 29 29 29 29 29 29 29 29 29 30 30 30 31 31 32 32 33 34 34 35

GEFSNGP_500_meanwind_072.txt.gz
Wind_Speed
21 22 23 24 25 26 27 27 28 26 26 24 26 28 29 29 29 30 30 31 32 33 35 36 37 38 40 41 42 43 44 44 45 46 46 46 47 46 46 45 45 44 43 43
22 23 24 24 25 25 26 26 26 27 25 25 28 29 30 30 30 31 31 31 32 33 34 35 36 37 38 39 39 40 41 42 42 42 43 43 43 43 42 42 42 42 41 41
22 24 25 24 23 24 25 26 27 27 25 27 28 28 29 30 30 30 30 31 32 33 34 34 35 35 35 36 37 38 39 39 40 41 41 42 42 41 41 40 40 40 39 38
24 24 25 23 24 25 26 26 27 27 27 27 27 27 28 29 30 30 30 31 31 32 32 33 34 34 34 35 35 37 38 38 38 39 39 39 39 39 39 38 37 37 36 36
26 26 26 25 25 25 27 27 28 27 27 27 27 27 28 29 29 29 30 30 30 31 31 32 32 33 34 34 35 36 36 37 37 37 37 37 36 36 36 36 35 35 35 34
25 26 25 25 25 26 27 27 27 27 27 27 27 27 28 28 29 29 29 29 29 29 30 31 32 33 33 33 34 34 34 34 34 34 34 34 34 33 33 33 33 33 32 32
25 26 25 24 24 25 26 26 26 26 27 27 27 27 27 27 27 27 27 27 28 28 28 29 31 31 32 33 32 32 31 31 31 31 32 32 32 31 31 31 31 31 31 31
23 25 25 24 24 24 25 25 25 26 26 26 26 26 26 26 26 26 27 27 26 27 27 27 28 29 29 30 30 30 30 30 30 30 30 29 29 30 30 29 29 30 30 30
23 24 25 25 25 24 24 24 24 24 25 25 25 25 25 25 25 25 26 26 26 26 26 26 27 27 28 27 27 27 27 28 28 28 28 28 28 28 29 29 28 28 28 29
21 22 23 23 23 24 24 24 23 23 23 23 23 24 24 24 24 24 24 24 25 25 25 25 25 26 26 26 26 25 26 26 26 27 27 27 27 28 28 28 28 28 28 29
22 22 23 23 23 23 23 24 24 24 23 23 23 23 23 23 23 23 23 23 23 24 24 24 24 25 25 25 25 25 26 26 26 27 27 26 27 27 27 28 28 28 28 29
20 21 22 23 24 24 24 24 24 24 24 24 24 24 23 23 23 23 23 23 23 24 24 24 24 24 25 25 25 26 26 27 27 27 27 27 27 27 28 28 28 29 29 30
20 21 22 22 23 24 24 24 24 24 24 25 24 24 24 24 24 24 24 24 24 24 24 24 24 25 25 25 26 26 27 27 27 27 27 27 28 28 29 29 30 30 31 31
19 20 22 23 23 24 25 25 26 26 26 26 26 25 25 25 25 25 25 25 25 25 25 26 26 27 26 26 27 27 27 27 27 28 28 29 29 30 30 30 31 31 32 32
20 21 22 22 23 24 25 26 26 27 27 27 27 27 27 27 26 26 27 27 27 27 27 27 28 28 28 28 28 29 29 29 29 30 30 31 31 31 31 31 32 32 33 33
19 20 21 22 23 24 26 26 27 27 27 28 28 28 28 28 27 27 28 28 28 28 28 28 29 29 29 30 30 30 30 30 30 30 31 31 31 31 31 32 33 34 34 35
18 19 20 21 22 24 25 26 27 28 28 28 29 29 28 28 27 27 28 28 28 29 29 29 30 30 30 31 31 31 31 32 31 31 31 32 32 32 33 34 34 35 35 36
17 18 19 20 21 22 24 25 25 26 27 28 28 29 28 28 28 28 27 28 28 28 29 29 30 30 31 31 31 32 32 33 33 33 34 33 34 34 35 35 35 35 35 36
18 18 19 20 20 20 20 20 21 21 22 23 24 26 26 27 27 27 27 27 27 28 28 29 30 30 31 32 32 32 33 33 34 34 35 35 35 35 35 36 35 35 36 36
19 18 18 19 19 18 17 17 18 19 20 20 21 23 24 25 26 26 27 27 28 28 29 29 29 30 30 31 31 32 32 33 33 34 35 35 35 35 35 35 36 36 37 38
21 20 19 19 19 19 18 18 18 19 19 19 20 22 23 24 25 25 26 27 27 27 27 28 28 28 28 29 30 31 31 31 32 33 33 34 34 34 35 35 36 36 37 38
22 22 21 21 20 20 19 19 20 20 20 21 21 21 22 23 24 24 24 24 24 25 25 26 26 27 28 28 28 29 30 31 31 32 32 33 33 33 34 35 35 36 36 36
24 23 23 23 22 21 21 21 21 22 22 22 23 23 23 23 23 23 23 23 23 24 24 25 25 26 27 27 28 29 29 30 30 30 31 32 32 33 33 34 34 35 36 36
25 25 24 24 24 24 23 23 23 23 23 23 23 24 24 24 24 24 24 24 24 24 24 25 25 25 26 26 27 28 28 29 29 29 29 30 31 31 32 33 33 34 34 35
28 27 27 27 26 26 26 26 25 25 25 24 24 24 24 25 25 25 25 24 24 24 25 25 25 26 26 26 26 26 27 28 28 29 29 30 31 31 32 32 32 32 33 34
31 31 30 30 29 29 28 28 28 27 27 27 26 26 26 26 27 27 27 27 26 26 26 26 26 26 26 26 27 27 27 28 28 29 30 30 31 31 31 32 32 32 33 33
33 33 32 32 33 32 31 31 30 30 29 29 29 28 28 27 27 28 28 28 28 28 28 28 27 27 27 28 28 28 28 29 29 29 30 30 30 31 31 32 32 32 33 33

GEFSNGP_500_meanwind_078.txt.gz
Wind_Speed
18 19 19 20 21 22 24 25 26 25 26 26 28 28 28 28 28 28 28 28 28 29 30 30 31 32 34 35 37 38 39 40 41 42 43 44 44 45 45 45 45 45 45 45
18 19 21 21 21 22 24 25 25 26 26 26 28 28 28 28 28 28 29 29 29 30 30 30 30 31 33 34 35 36 37 38 39 40 41 41 42 42 43 43 43 43 43 43
19 20 22 22 21 23 24 25 26 26 25 26 27 28 28 28 28 28 29 29 30 30 30 31 31 32 32 33 34 35 36 37 38 38 39 39 40 40 40 41 41 41 42 42
19 20 21 21 22 23 24 24 25 26 26 26 27 28 28 28 28 28 29 30 30 31 31 32 31 32 33 33 34 35 36 36 37 37 38 38 38 39 39 39 40 40 40 40
20 21 22 21 21 23 24 24 25 26 27 28 28 29 29 29 29 29 30 30 30 31 32 32 32 32 33 33 34 34 35 36 36 37 37 37 37 37 37 38 38 38 38 38
21 22 23 23 22 23 25 26 25 26 26 27 28 29 29 29 30 30 30 30 31 31 31 32 33 33 33 33 34 34 35 35 35 36 36 36 36 36 36 36 36 36 35 35
20 22 23 23 23 25 26 26 25 26 27 27 28 29 29 29 30 30 31 31 31 31 31 32 32 33 33 33 33 34 34 35 35 35 35 36 36 35 35 34 34 34 33 32
20 22 22 24 24 24 25 25 25 26 27 27 28 28 29 29 29 30 30 30 30 30 31 31 31 31 32 32 32 33 33 33 34 34 34 34 34 34 33 33 32 32 31 30
19 20 21 23 24 25 25 25 25 26 27 27 28 28 29 29 29 29 30 30 30 30 30 30 30 30 30 31 31 31 32 32 32 32 32 32 32 32 32 31 30 30 29 29
19 20 21 23 24 25 26 27 27 27 27 28 28 28 28 29 29 29 29 29 29 29 29 29 30 30 30 30 30 31 31 31 31 30 30 30 29 29 29 29 28 28 28 28
20 20 21 22 23 24 25 26 27 28 28 28 28 28 28 28 29 29 29 29 29 29 29 29 29 29 29 29 30 30 30 30 29 29 29 29 29 29 29 28 28 28 28 28
21 21 22 22 23 23 24 25 26 27 28 29 29 29 29 29 29 29 29 29 29 29 29 29 29 29 29 29 29 29 29 29 29 29 29 29 29 29 29 29 29 28 28 28
21 21 21 21 22 23 25 25 26 27 27 28 28 28 29 29 29 29 29 30 29 29 30 30 29 29 29 29 29 29 29 29 29 29 29 29 29 29 29 30 30 30 29 29
23 22 21 21 22 24 25 26 26 26 27 28 28 29 29 29 29 30 30 30 30 30 30 30 30 30 30 30 30 30 30 30 30 30 30 30 30 30 30 30 30 30 31 31
24 24 23 23 24 25 25 25 26 27 28 29 29 30 30 30 30 30 31 31 30 31 31 31 31 31 31 31 31 31 31 31 31 32 32 32 32 32 31 31 31 32 32 32
25 24 24 24 25 25 25 25 26 26 27 28 29 30 30 31 31 31 31 31 31 31 31 32 32 32 32 32 32 32 31 31 32 32 32 32 33 33 33 33 33 33 33 33
27 26 25 25 25 26 26 26 26 26 27 28 29 30 31 31 31 31 31 32 32 32 32 32 32 32 32 32 32 32 32 32 32 32 32 33 33 33 33 34 34 34 34 34
29 28 27 26 26 26 25 25 26 26 27 27 28 29 30 31 31 31 31 31 32 32 32 31 31 31 31 31 31 32 32 33 33 33 33 33 33 34 34 34 34 34 35 36
30 29 29 29 28 27 27 26 26 27 27 28 28 28 29 29 30 29 29 30 30 31 31 31 31 31 31 31 31 31 31 32 33 33 33 33 33 33 34 34 35 35 35 35
31 31 31 30 30 29 29 28 28 28 28 28 28 28 28 28 28 28 28 29 29 29 29 29 30 30 30 30 30 31 31 31 32 32 32 33 33 33 33 33 34 34 35 35
33 33 33 32 32 31 31 30 30 29 28 27 26 26 25 25 25 26 26 27 27 28 28 28 29 29 29 29 29 29 30 30 30 31 31 31 32 32 32 32 33 33 34 35
35 35 35 35 34 33 33 32 31 30 29 28 27 25 25 24 25 26 26 27 27 27 27 27 28 28 28 28 28 28 29 29 30 30 30 31 31 32 32 32 32 33 33 33
37 38 38 38 37 36 35 34 33 32 31 29 28 27 27 27 27 27 27 27 27 27 27 27 27 27 27 27 27 27 28 28 28 28 29 29 30 30 31 31 32 32 32 32
40 40 40 40 39 38 37 36 34 33 32 31 31 30 29 29 29 29 29 28 28 28 28 28 27 27 27 27 27 27 27 27 27 27 28 28 29 29 29 29 30 31 31 31
41 41 41 41 40 38 37 35 34 34 33 32 32 31 31 31 30 30 30 30 29 29 29 29 28 28 28 28 28 28 28 28 28 28 28 28 28 28 29 29 29 30 31 31
43 43 42 42 40 39 37 36 35 35 34 33 32 32 31 31 30 29 29 29 29 29 29 29 29 29 29 29 29 29 29 29 29 29 29 29 28 28 29 29 30 30 31 31
45 44 43 42 40 39 37 37 36 35 34 33 32 32 31 31 30 30 30 30 30 30 30 30 30 30 30 30 30 30 30 31 31 30 30 30 30 30 30 30 30 31 30 31

GEFSNGP_500_meanwind_084.txt.gz
Wind_Speed
11 12 13 14 16 18 19 20 21 21 23 24 26 28 28 28 29 30 30 31 31 32 33 34 35 36 36 37 38 39 39 40 41 41 42 43 44 45 45 45 45 45 45 46
11 13 13 14 16 18 19 21 22 23 24 26 29 30 30 31 31 31 32 32 32 33 33 34 35 35 35 36 36 37 38 38 39 40 41 41 42 42 43 43 43 43 44 44
11 14 15 15 17 18 19 20 23 24 24 27 28 29 30 32 33 33 33 33 33 34 34 35 35 36 36 36 36 36 37 37 38 38 39 40 40 41 41 42 42 42 42 42
11 13 15 16 18 19 20 21 22 23 25 26 28 29 29 31 32 33 33 33 34 34 35 36 36 36 36 36 36 36 37 37 37 38 38 39 40 40 41 41 42 42 42 41
10 12 14 16 18 19 20 21 23 23 25 27 29 29 30 31 32 32 33 33 33 34 34 35 36 36 36 36 36 36 37 37 37 38 38 38 39 40 40 40 40 40 40 39
10 12 13 15 17 19 21 21 22 24 25 26 28 29 30 31 32 32 33 34 34 34 35 35 35 36 36 36 36 36 37 37 37 37 38 38 39 39 39 39 39 39 39 39
10 11 12 15 17 19 20 21 23 25 26 27 28 29 30 31 32 33 33 34 35 34 35 36 36 36 36 36 37 37 38 38 38 38 39 39 39 39 39 38 38 38 38 38
11 11 12 15 16 18 20 22 24 25 26 27 28 30 31 32 32 33 34 34 34 34 35 35 36 36 36 37 37 37 37 37 38 38 38 38 38 38 37 37 38 38 37 37
13 13 14 15 16 18 20 21 23 24 25 27 28 28 30 32 32 33 33 34 34 34 34 35 35 35 36 37 37 37 37 36 36 36 37 37 37 36 36 36 36 36 35 35
15 15 16 16 17 18 20 21 22 23 25 26 26 28 28 30 31 32 32 33 33 34 34 34 34 34 35 35 36 36 36 36 35 35 35 35 35 35 35 35 35 34 34 34
16 17 17 18 18 19 20 21 22 23 25 26 27 27 28 28 29 29 30 31 32 33 33 34 34 34 34 34 35 35 35 35 35 35 34 34 34 34 34 34 34 33 33 33
18 20 20 20 20 20 21 22 23 24 25 26 27 28 28 29 30 30 30 30 31 32 32 33 34 34 34 34 34 34 34 34 34 34 34 34 34 34 34 34 34 33 33 33
20 22 23 23 23 23 23 24 24 25 26 27 28 29 29 30 30 31 32 32 32 32 32 32 32 33 34 34 34 34 35 35 35 35 35 34 34 34 34 34 34 34 34 34
22 24 24 25 25 25 25 25 25 26 27 28 28 29 29 30 31 32 33 33 33 33 34 33 33 33 33 34 34 34 35 35 35 35 35 35 34 34 35 35 35 34 34 34
24 25 26 27 27 27 27 26 26 27 27 28 29 29 29 29 30 31 32 33 33 33 34 34 34 34 34 34 35 35 35 35 35 36 36 36 35 35 35 35 35 35 35 34
26 27 28 29 29 29 29 28 28 29 29 29 29 30 30 30 30 31 32 32 33 33 34 34 34 34 34 34 35 35 35 35 35 36 36 36 36 36 35 35 35 34 34 35
28 29 30 31 31 31 30 30 30 30 30 30 30 30 30 30 31 32 32 32 33 34 34 34 34 34 34 34 34 34 35 35 35 35 35 35 36 36 35 35 34 34 34 35
30 31 32 33 33 33 32 32 32 32 32 31 31 31 31 32 32 32 32 32 32 33 33 33 34 33 33 34 34 34 34 34 34 35 35 35 34 34 34 35 34 34 34 34
32 33 34 35 35 35 35 35 35 35 34 33 33 32 32 32 32 32 31 31 31 32 32 32 32 32 32 32 32 33 33 33 33 33 33 33 34 34 34 34 34 34 34 34
34 35 36 37 37 37 37 37 37 37 37 36 35 34 33 33 33 32 31 31 30 31 31 30 30 30 31 31 31 31 31 32 32 32 32 32 32 33 33 33 33 34 34 34
36 37 38 38 39 39 39 39 39 39 39 38 36 35 35 34 33 32 31 30 30 31 31 31 31 31 31 31 30 30 30 30 30 31 31 31 31 31 32 32 32 32 33 33
38 38 39 40 40 41 41 41 41 41 40 39 37 36 35 34 33 31 30 29 29 29 29 30 31 31 31 31 31 30 30 30 30 30 31 31 30 30 30 31 31 31 31 31
39 40 41 42 42 43 43 43 42 42 41 39 37 36 35 33 32 31 29 28 28 29 29 30 31 32 32 32 31 31 31 31 31 31 31 30 30 30 30 30 29 29 30 30
41 42 43 43 43 44 44 44 44 43 41 39 38 36 35 33 32 31 30 29 28 28 28 29 30 30 31 31 31 31 31 31 31 30 30 30 30 30 30 29 29 29 29 29
43 44 44 44 45 45 45 45 44 43 41 38 37 35 34 32 32 31 30 29 28 28 28 28 28 29 29 30 30 30 30 30 30 29 30 30 30 31 30 30 30 30 30 30
45 45 45 45 46 47 46 45 43 42 40 37 36 35 34 33 32 31 30 29 28 28 28 28 28 29 29 30 30 30 30 30 30 30 31 31 31 31 31 31 31 31 31 31
45 45 46 47 47 47 46 44 43 41 39 38 36 35 34 33 32 31 31 30 29 28 28 28 29 29 29 29 30 30 30 31 31 32 32 32 32 32 33 32 32 32 31 31

GEFSNGP_500_meanwind_090.txt.gz
Wind_Speed
4 5 6 8 10 10 11 11 12 12 14 15 17 18 20 22 24 27 29 31 34 35 37 39 41 42 43 44 44 44 44 45 45 45 45 46 46 46 46 45 45 46 46 46
3 4 6 8 10 11 12 13 14 15 15 18 19 21 22 24 26 29 31 33 34 36 37 38 40 42 43 44 44 45 45 45 46 46 45 45 45 44 44 44 44 44 44 44
3 4 6 7 9 11 13 14 16 17 18 20 22 24 25 27 29 30 32 33 34 36 37 38 40 41 42 43 44 45 45 45 45 45 45 45 44 44 44 43 43 42 42 43
3 5 5 6 9 11 12 14 17 19 21 22 24 25 27 29 31 32 33 33 35 37 38 39 40 41 42 43 44 45 45 45 45 45 45 44 44 44 44 43 43 42 42 42
4 5 6 7 8 10 11 13 16 18 20 22 24 26 28 30 31 32 33 34 35 37 38 39 40 41 42 42 43 44 45 45 45 45 45 44 44 44 43 43 43 43 43 43
5 6 7 8 9 11 12 13 16 18 20 22 24 26 28 30 31 32 33 34 35 36 37 38 39 40 42 42 43 43 44 44 44 44 44 44 43 43 43 42 42 43 43 43
6 7 7 9 10 12 13 14 17 19 21 23 25 27 28 30 31 32 33 35 35 36 37 38 39 40 41 41 42 43 43 43 43 43 44 44 44 43 43 43 43 43 43 43
8 8 8 10 12 12 14 16 18 20 22 24 26 28 29 30 31 32 33 35 35 36 36 38 38 39 40 40 41 41 42 43 43 43 43 43 43 43 43 43 43 42 42 42
9 10 10 12 12 14 15 17 19 20 22 24 26 28 30 31 32 33 34 35 36 36 36 37 38 38 38 39 40 41 41 42 42 42 42 42 43 43 43 42 42 42 42 41
11 12 13 14 15 16 17 18 20 22 23 25 27 29 30 32 33 34 36 37 37 37 37 37 38 37 38 39 39 39 40 40 41 41 42 41 41 41 41 41 41 40 40 40
13 15 16 16 17 18 19 20 22 23 25 27 28 29 30 32 33 35 36 37 37 38 38 38 38 38 38 38 38 38 38 38 39 40 40 40 40 40 40 39 39 39 39 39
15 17 18 19 20 21 22 23 24 26 27 28 29 30 31 32 33 34 36 37 37 37 37 37 37 38 38 38 38 38 38 38 38 38 39 39 39 39 39 39 39 39 38 38
17 18 20 21 22 24 25 26 27 28 29 30 31 31 32 33 34 35 36 36 36 36 36 37 37 37 38 38 38 38 38 38 38 38 38 38 38 38 38 38 38 38 38 38
19 20 22 23 24 26 27 29 30 31 31 32 32 33 34 35 35 36 36 36 36 36 36 37 37 38 38 38 38 38 38 37 37 37 37 37 38 38 37 37 38 38 38 37
21 22 23 25 26 28 29 31 32 33 34 34 35 35 36 36 36 37 37 37 37 36 37 37 37 37 38 37 37 37 38 38 37 37 37 37 37 38 38 37 37 37 37 37
23 24 25 27 29 30 31 33 34 35 36 37 37 38 38 38 38 38 38 37 36 36 36 37 36 36 36 36 37 37 38 37 37 37 37 37 37 37 38 37 37 37 36 37
24 26 27 29 31 32 34 35 37 38 38 39 40 40 40 40 39 39 39 38 38 37 37 36 35 35 34 34 35 35 36 36 37 37 37 37 37 36 36 36 36 36 36 36
26 28 29 31 32 34 36 38 39 40 41 42 42 42 41 40 40 41 41 40 39 39 38 37 36 35 35 34 34 34 34 34 35 36 36 36 36 35 35 35 35 35 36 36
28 30 31 33 35 36 38 40 41 42 43 44 44 43 42 41 42 42 42 41 40 38 37 36 35 35 35 35 35 35 35 34 34 34 34 34 34 35 35 35 35 35 35 35
30 32 33 35 37 38 40 42 43 44 44 45 44 44 43 43 44 43 42 41 39 37 36 35 35 34 34 35 35 34 34 34 34 34 34 34 33 34 34 34 34 34 34 34
32 33 35 37 39 40 42 44 45 45 46 46 45 45 45 44 44 42 41 39 37 36 34 34 34 33 33 33 33 33 33 33 33 34 34 34 33 33 33 34 34 34 33 33
33 35 37 39 41 42 44 45 46 47 47 47 47 47 46 44 43 41 39 38 36 35 35 34 33 32 31 31 31 31 32 32 32 33 33 34 34 34 34 33 33 32 32 32
35 37 39 41 43 44 46 47 48 48 48 48 48 47 46 44 43 41 39 38 37 37 35 33 32 31 31 31 31 31 31 32 32 32 33 33 34 34 34 33 32 32 31 31
37 39 41 43 45 46 47 48 49 49 49 49 49 48 46 44 42 41 40 39 38 37 35 33 32 31 31 30 30 30 30 31 31 32 33 32 33 33 33 33 32 32 32 32
39 41 43 45 46 47 48 50 50 50 50 49 49 48 46 44 42 41 40 39 38 36 33 32 31 30 29 28 27 27 28 28 29 30 30 31 32 32 32 32 32 32 32 32
41 43 45 46 48 49 50 51 51 51 51 50 49 48 46 44 42 41 40 39 37 35 33 31 30 28 27 25 25 25 25 25 26 27 28 29 30 31 32 32 32 32 32 32
42 44 46 48 49 51 52 52 52 52 51 50 49 48 46 44 43 42 41 39 37 35 33 31 29 27 25 23 22 22 22 23 23 24 25 26 27 28 29 30 31 31 31 31

GEFSNGP_500_meanwind_096.txt.gz
Wind_Speed
9 9 8 8 8 9 8 8 7 7 6 6 6 7 8 9 11 14 15 18 20 22 24 27 29 31 32 34 35 37 38 40 40 41 42 42 43 43 44 44 44 44 45 45
9 8 8 8 8 7 7 6 7 6 6 6 7 8 10 12 14 16 18 20 22 25 27 30 32 34 35 36 38 39 41 42 43 44 44 45 45 46 46 46 46 46 46 45
8 7 7 6 6 6 5 5 5 6 6 7 8 10 12 14 16 18 20 22 25 26 28 30 33 35 37 38 39 41 42 43 44 45 45 46 46 46 47 47 47 47 47 46
6 6 5 5 4 4 3 3 3 4 5 6 8 10 12 15 17 20 22 25 28 29 31 33 35 37 39 40 41 42 42 44 44 45 45 45 46 46 47 47 47 46 46 46
5 5 4 3 2 2 2 3 3 4 5 6 8 11 13 15 18 20 23 26 29 31 33 35 37 39 40 41 42 42 43 44 45 45 45 45 45 45 46 47 46 46 46 45
6 5 4 3 2 1 1 2 4 6 7 9 10 12 15 17 20 22 24 27 29 32 34 36 38 39 41 42 43 43 44 44 45 46 46 46 46 46 46 46 46 46 45 45
6 5 5 4 4 4 4 4 5 7 9 11 12 14 16 18 21 23 26 29 31 33 35 36 38 40 42 43 44 45 47 47 47 47 46 46 46 46 45 45 46 46 46 45
5 4 4 4 4 5 5 6 7 8 10 12 14 16 18 21 23 26 28 31 32 34 36 38 39 41 42 43 44 45 46 47 47 47 47 47 47 47 46 46 45 45 45 45
4 4 4 4 5 5 6 7 8 10 12 14 16 18 20 23 25 28 30 32 33 35 37 39 40 42 43 43 44 45 45 45 45 45 45 45 45 46 45 45 44 44 44 44
2 3 4 5 6 7 8 9 11 12 14 16 18 20 22 25 27 29 31 32 34 35 37 38 40 42 43 43 43 43 43 43 43 43 43 43 44 44 44 44 43 43 42 43
3 4 5 7 8 9 11 12 13 15 17 18 20 22 24 26 28 30 32 33 34 35 37 38 40 41 42 42 41 42 42 42 42 42 42 43 43 43 43 43 43 42 42 42
5 6 7 9 10 12 13 14 16 18 19 21 23 25 27 29 31 33 34 35 36 37 38 40 41 41 41 41 41 41 41 41 41 41 41 41 42 42 42 42 42 42 42 42
7 8 10 11 13 14 16 17 19 20 22 24 25 28 30 32 33 35 36 37 38 39 40 41 41 41 41 41 41 41 41 40 40 39 39 39 40 41 41 41 41 41 41 41
10 11 12 14 15 17 18 20 22 23 25 26 28 31 33 35 36 37 38 38 39 40 41 42 42 42 41 41 41 41 41 40 39 39 38 38 38 39 39 39 40 40 40 40
12 13 14 16 18 19 21 23 24 26 28 30 32 34 36 37 38 39 40 40 41 42 43 43 43 43 42 42 41 40 40 40 39 38 37 36 37 37 38 38 38 38 39 40
14 15 16 18 20 21 23 25 27 29 31 33 35 36 38 39 40 42 42 42 43 43 44 44 43 43 42 42 42 41 41 40 39 38 37 37 36 36 36 37 37 37 38 39
16 17 18 20 22 23 26 28 30 32 33 35 37 39 40 41 42 43 44 44 44 45 45 45 44 44 43 42 42 41 40 40 39 38 38 37 36 35 35 35 37 37 37 38
17 19 20 22 24 25 28 30 32 34 35 38 40 41 42 43 44 44 45 45 46 46 46 46 45 44 42 42 41 40 39 38 37 36 36 35 34 34 34 35 35 35 36 37
19 21 22 24 26 28 30 32 34 36 38 40 42 42 43 44 45 46 46 46 47 47 47 46 45 43 42 40 39 38 37 35 34 34 33 33 33 34 34 34 34 34 35 36
21 23 24 26 27 30 32 34 36 38 40 42 43 44 45 46 47 47 47 47 47 48 47 46 44 43 41 39 37 35 33 32 31 31 32 31 32 33 33 33 33 34 34 35
23 25 26 27 29 31 33 36 38 40 42 44 45 45 46 47 48 49 49 48 48 48 47 46 44 42 40 39 36 34 32 31 30 29 30 30 31 31 32 32 32 33 33 34
25 26 28 29 31 33 35 37 40 42 44 45 46 47 48 49 50 50 50 49 49 48 47 45 44 42 40 38 35 33 32 30 29 29 28 29 29 29 30 31 31 32 32 33
27 28 29 31 33 35 37 39 41 43 45 46 47 48 49 50 51 52 51 50 49 48 47 45 44 43 40 37 35 33 31 30 28 28 27 27 27 27 27 28 29 30 31 32
28 29 31 32 34 36 38 40 43 45 46 48 48 49 50 51 52 53 52 51 50 48 47 46 45 43 40 37 34 32 30 28 27 26 25 25 24 25 25 26 26 28 29 30
29 30 32 34 36 37 39 42 44 46 48 49 50 50 51 52 53 53 52 51 50 49 48 47 45 42 39 36 33 31 28 27 26 25 24 23 22 23 23 23 24 25 26 27
30 32 33 35 37 39 41 43 45 48 49 50 51 52 53 54 54 53 53 51 51 49 48 46 44 41 38 35 32 30 28 26 25 23 22 21 21 22 22 22 23 23 25 25
32 33 35 37 39 40 42 44 47 49 50 51 52 53 53 54 54 54 53 51 50 49 47 45 42 39 37 34 31 28 27 25 23 22 21 20 20 20 21 21 22 23 23 24

GEFSNGP_500_meanwind_102.txt.gz
Wind_Speed
8 8 8 8 8 8 8 7 7 7 7 5 5 5 5 4 4 3 1 1 2 4 6 7 9 12 14 16 18 20 23 25 27 30 32 33 34 36 38 39 40 41 42 43
8 8 9 9 8 9 8 8 7 7 6 5 5 4 4 3 3 2 1 2 3 5 8 11 13 15 17 19 21 24 27 29 31 32 34 36 37 38 40 41 42 43 44 44
9 8 8 9 8 7 7 7 6 6 5 4 3 2 2 2 2 3 3 5 7 9 11 14 16 18 21 23 26 28 31 33 35 36 38 40 41 42 42 43 44 45 45 45
9 8 7 7 7 7 6 5 5 4 4 3 3 2 1 2 4 5 7 9 11 13 15 17 19 21 24 27 30 32 35 37 38 40 42 43 44 45 46 47 47 47 46 47
8 8 7 6 6 6 6 5 5 4 3 2 2 2 3 5 6 8 10 12 13 15 17 20 22 24 27 30 33 35 37 39 41 42 44 44 45 46 47 47 47 47 47 47
7 6 5 5 5 4 4 4 3 3 2 3 3 5 6 7 9 10 12 14 16 19 21 23 25 28 30 33 35 37 39 41 42 43 44 45 45 46 47 47 48 48 48 48
6 6 5 4 4 3 2 1 0 1 2 3 4 6 8 10 11 13 15 18 20 22 25 27 28 31 33 35 37 39 40 42 43 44 45 45 46 46 46 46 47 48 47 47
5 5 4 3 3 2 1 1 2 2 3 4 6 8 10 12 13 15 17 19 21 24 26 28 31 33 35 37 38 39 41 43 43 44 45 45 45 45 46 47 47 47 46 45
3 3 2 2 1 0 1 2 3 4 6 7 8 10 11 13 15 17 19 21 24 26 29 31 33 35 36 37 38 40 42 43 43 44 45 46 46 46 47 47 47 47 46 45
2 2 1 1 0 1 2 3 4 5 6 8 10 11 13 15 18 20 23 25 27 30 32 34 36 37 39 40 41 42 43 44 44 45 46 47 47 48 47 47 47 47 46 45
3 2 2 2 2 3 4 5 6 7 9 10 12 14 16 18 20 23 25 27 29 32 35 37 38 39 41 42 43 44 44 45 46 47 48 48 48 48 48 47 47 47 45 45
5 5 4 5 5 5 6 7 8 10 11 13 14 16 18 20 23 25 27 29 32 35 37 39 40 41 42 44 45 45 47 48 49 49 50 50 50 49 48 47 46 45 44 43
8 8 8 8 8 8 9 10 11 12 14 15 17 19 21 23 26 28 30 32 35 37 39 40 42 43 44 45 47 48 49 50 51 51 51 50 49 48 47 45 44 43 41 40
11 11 11 11 11 11 12 13 14 15 16 18 20 22 24 26 28 30 33 35 37 40 41 42 43 44 46 47 49 50 50 51 52 51 51 50 48 47 46 44 42 40 39 38
14 14 14 14 14 14 15 16 17 18 19 21 23 25 27 29 31 33 35 38 40 42 43 44 45 46 48 49 50 50 51 51 51 50 50 49 47 45 44 42 40 38 37 36
17 17 17 17 17 18 18 19 20 21 22 24 25 27 29 31 33 36 38 40 42 44 45 46 47 48 50 50 50 50 51 51 51 49 48 46 45 43 41 40 38 36 34 34
20 20 19 19 20 20 21 21 22 23 25 26 28 30 32 34 36 38 40 42 44 46 47 48 49 50 51 51 51 51 51 50 50 48 46 44 42 41 39 37 35 34 33 33
23 22 22 22 22 22 23 24 25 26 27 29 31 33 35 36 38 40 42 44 46 47 48 49 50 52 52 52 52 51 51 50 48 46 44 41 39 38 36 34 33 32 31 31
25 25 25 25 24 25 25 26 27 28 30 31 33 35 37 38 40 42 44 46 47 48 49 51 52 53 53 53 52 52 51 49 48 45 42 39 37 36 34 32 31 30 30 30
28 28 27 27 27 27 27 28 29 30 32 33 35 36 38 40 42 44 45 47 48 50 51 52 53 53 53 53 52 51 50 49 47 44 41 38 36 35 33 31 30 29 29 29
30 30 29 29 29 29 29 30 31 32 34 35 37 38 40 42 44 45 46 48 50 51 52 53 53 54 53 53 52 51 50 48 46 44 41 37 35 33 32 30 28 27 27 27
31 31 31 31 31 31 32 32 33 34 35 37 38 40 42 43 45 47 48 49 51 52 52 53 54 54 53 53 52 50 49 47 45 42 39 36 33 31 29 28 26 25 24 24
32 33 33 32 33 33 34 34 35 36 37 38 40 41 43 45 46 48 49 50 52 52 53 53 53 53 53 52 51 49 48 46 43 40 37 33 31 29 27 25 24 23 23 22
33 33 34 34 34 34 35 35 36 37 38 39 41 42 44 46 48 49 50 51 52 52 53 53 53 53 52 52 50 48 46 44 41 37 34 31 29 27 25 24 23 22 22 21
34 34 34 35 35 36 36 36 37 38 39 41 42 44 45 47 48 50 51 51 51 52 52 52 52 52 51 50 49 47 45 42 38 35 32 29 27 26 24 23 21 20 20 20
34 34 34 35 36 36 37 37 38 39 40 41 43 45 46 47 49 50 50 51 51 52 52 52 52 51 50 49 48 46 43 40 36 34 31 28 26 24 23 22 21 19 19 19
35 35 35 35 36 36 37 38 39 40 41 42 44 45 47 48 49 50 50 51 51 52 52 52 52 51 49 48 46 44 41 38 35 32 30 27 25 23 22 21 20 19 19 18

GEFSNGP_500_meanwind_108.txt.gz
Wind_Speed
7 7 7 8 9 9 10 10 8 8 8 8 7 7 8 8 9 10 10 9 8 8 7 6 5 3 4 5 6 7 10 12 14 16 18 21 24 26 29 32 35 37 40 42
7 7 8 8 9 9 10 9 8 8 7 8 8 8 8 8 8 7 7 7 7 6 5 3 1 1 2 5 7 9 10 12 15 17 20 23 26 29 32 35 37 40 42 44
7 7 7 7 8 8 8 8 8 7 7 7 6 6 6 6 6 6 6 5 4 4 3 2 2 3 5 7 8 10 13 15 17 20 23 25 28 31 33 36 38 41 43 46
8 7 7 8 8 8 8 7 8 7 7 6 6 6 6 6 5 5 4 3 2 0 1 3 4 6 8 9 12 14 17 20 23 25 27 30 32 34 36 38 40 42 44 46
9 8 7 7 7 7 7 7 6 6 5 5 5 4 4 3 3 2 1 0 2 4 5 6 8 10 12 14 16 18 20 23 25 28 31 33 35 37 39 40 41 43 45 46
8 8 7 6 6 6 6 5 5 5 5 4 4 3 3 2 2 2 3 4 5 7 9 10 11 13 15 17 19 21 24 26 28 29 32 34 36 38 40 41 43 44 46 46
7 7 6 6 6 5 4 4 4 5 6 5 5 4 4 4 5 5 6 7 9 10 11 12 14 16 17 19 21 23 26 27 29 31 32 34 36 38 40 42 44 46 48 48
7 6 6 6 6 5 5 5 4 5 5 6 6 6 6 6 7 8 9 10 11 12 13 15 16 18 21 23 25 27 29 30 32 34 35 38 39 41 43 45 46 47 48 48
7 7 7 7 6 6 6 6 5 5 5 5 6 7 7 8 9 10 11 12 13 14 16 18 20 22 24 26 29 31 32 34 35 37 39 41 43 44 46 47 48 48 48 47
6 7 7 7 7 7 7 7 7 7 7 7 7 7 8 9 10 11 13 14 15 17 18 20 22 24 27 29 31 33 34 36 38 40 42 44 45 47 48 48 48 48 48 48
7 7 8 7 7 7 7 7 8 8 8 8 9 9 10 11 12 14 15 16 17 19 21 23 25 28 30 32 34 36 38 39 41 43 45 47 48 49 49 49 49 49 49 50
8 9 9 8 9 9 9 9 9 10 10 11 11 12 13 14 15 16 17 19 20 22 24 27 29 32 34 36 37 39 41 42 44 46 48 50 50 51 51 51 50 51 51 50
11 11 10 10 11 11 12 12 12 12 12 13 14 15 16 18 19 20 20 22 24 26 28 30 33 35 37 39 40 42 43 45 47 49 51 51 51 51 51 51 51 51 51 50
13 14 13 13 14 14 14 15 16 16 17 17 17 18 19 21 22 23 24 25 27 29 31 33 36 38 39 41 43 45 47 48 50 52 53 52 52 52 52 51 50 50 50 49
17 17 17 17 17 17 17 18 19 20 20 21 21 22 22 23 24 26 27 28 30 32 34 36 38 40 42 44 45 47 49 50 52 53 53 53 53 53 53 52 50 49 48 47
20 21 21 20 21 21 21 21 21 22 23 23 24 25 26 26 27 29 30 32 33 35 37 39 41 42 44 46 47 49 51 52 53 53 53 53 53 53 52 50 49 48 46 45
24 24 24 24 24 24 24 24 24 24 25 26 26 27 28 29 30 31 33 35 36 38 39 41 43 44 46 48 49 51 52 52 53 54 53 53 52 51 49 48 47 45 43 41
27 27 27 27 27 27 27 27 27 27 28 28 29 30 30 31 32 34 35 37 38 40 41 43 45 46 48 49 51 52 52 53 53 53 53 52 51 49 48 47 45 43 41 38
30 30 30 30 30 30 30 30 30 30 30 31 31 32 32 33 34 36 37 38 40 41 43 44 46 47 49 50 51 52 53 53 53 52 52 51 50 48 46 45 43 41 39 37
33 33 32 32 32 32 32 32 32 33 33 33 34 34 34 35 36 37 39 40 41 43 44 46 47 48 49 50 52 53 53 53 52 52 51 50 49 47 45 43 41 39 36 34
36 35 35 34 34 34 34 34 34 34 35 35 35 35 36 37 38 39 40 41 43 44 45 46 47 49 50 51 52 53 53 52 52 51 50 49 47 45 43 40 38 36 34 32
36 36 36 36 36 36 36 36 36 36 36 36 37 37 37 38 39 40 42 43 44 45 46 47 48 49 50 51 52 53 53 52 51 50 49 47 45 43 41 38 36 34 32 31
37 36 36 37 37 37 37 38 38 37 37 38 38 38 39 39 41 42 43 43 44 45 46 47 48 49 50 51 52 53 52 52 50 49 47 46 44 41 39 36 34 33 31 30
37 37 37 38 38 39 38 38 39 39 39 39 40 40 41 41 42 43 44 44 45 46 47 48 49 50 50 51 52 52 52 51 50 49 47 45 42 40 38 35 33 32 31 29
38 38 38 39 39 40 40 39 39 39 39 40 40 41 41 42 43 44 44 44 45 46 48 49 49 50 50 51 51 51 50 50 49 47 45 43 41 39 36 34 33 31 29 27
38 39 39 39 40 40 40 40 40 40 40 41 41 41 42 42 43 43 44 45 45 46 48 48 49 50 50 50 50 49 49 49 48 46 44 41 39 37 35 33 31 29 27 25
39 39 40 40 40 40 40 40 40 40 40 41 41 42 42 42 42 43 44 44 45 46 47 47 48 49 49 49 48 48 48 47 46 44 41 39 37 35 33 31 29 26 24 22

GEFSNGP_500_meanwind_114.txt.gz
Wind_Speed
5 5 6 6 5 5 4 4 4 4 4 4 3 3 4 5 5 5 5 5 4 4 4 4 3 2 2 2 3 4 5 7 9 12 14 16 19 21 22 25 28 31 33 35
4 4 4 4 4 4 4 4 4 3 2 1 2 2 3 3 4 5 4 4 3 3 2 1 1 0 1 2 3 5 6 8 9 11 14 16 19 21 23 26 28 30 32 34
3 3 2 2 2 2 2 1 1 0 1 1 1 1 1 2 3 3 3 3 2 1 1 0 1 2 2 3 4 6 8 10 11 13 14 16 19 21 24 27 29 32 34 36
1 1 0 1 1 1 0 1 1 1 2 2 2 2 2 1 0 0 0 1 1 2 3 3 3 4 5 5 6 7 9 11 12 14 16 18 20 22 24 27 30 33 36 38
2 2 1 1 1 1 1 1 2 2 2 2 2 2 2 2 2 2 3 4 5 5 6 6 7 7 7 8 10 11 12 13 15 17 19 21 22 24 26 29 32 35 38 40
4 4 3 3 2 2 1 1 1 2 3 3 3 3 3 3 4 5 5 5 6 7 7 8 8 9 10 12 13 14 15 16 18 21 22 24 26 27 29 32 34 36 38 40
6 6 5 6 5 5 4 4 4 5 5 6 6 6 7 6 7 7 7 8 8 9 10 10 10 12 13 14 15 17 18 20 22 24 25 27 30 32 33 34 36 37 39 42
7 8 8 8 8 8 7 7 7 7 7 8 8 9 10 10 10 10 11 11 12 13 13 14 15 16 17 19 20 21 23 25 26 27 28 30 31 32 34 35 37 39 41 43
7 8 8 9 9 10 10 10 10 10 10 10 10 11 12 13 13 14 14 15 16 17 17 18 19 21 22 23 24 25 27 28 29 30 31 32 34 35 37 39 41 42 44 45
9 10 10 11 11 11 11 12 12 12 12 13 13 14 15 16 16 17 18 19 20 20 21 22 23 24 24 25 27 28 29 31 33 34 35 36 38 39 41 42 44 45 46 47
12 13 13 13 13 14 14 15 15 15 16 16 16 16 17 18 18 19 20 20 21 22 23 24 25 26 27 28 30 31 33 34 35 36 38 39 40 42 43 45 46 48 49 49
12 13 14 14 15 16 16 17 17 18 18 18 18 18 19 19 20 20 21 22 23 24 25 26 27 28 30 31 32 33 35 36 37 38 39 41 42 44 45 47 48 50 51 51
15 16 16 16 16 16 16 17 18 18 19 20 20 21 21 22 22 23 23 24 25 27 27 28 28 30 31 33 34 35 36 38 39 40 41 43 44 45 46 47 49 51 52 52
19 19 19 19 19 20 20 20 21 21 22 22 23 23 24 24 25 25 26 27 28 29 30 31 32 33 34 35 35 37 39 40 41 43 44 45 46 47 48 49 50 51 51 52
23 23 23 23 24 24 24 25 25 26 26 26 27 27 27 28 28 28 29 30 32 32 33 34 35 36 36 37 38 39 41 42 43 45 46 46 47 49 50 50 50 51 50 49
25 25 26 27 27 28 28 28 28 29 29 30 30 30 31 31 31 32 33 33 34 35 36 37 38 38 39 40 41 42 43 44 45 46 47 48 49 50 50 51 51 50 49 48
27 27 28 29 30 31 31 31 31 31 32 32 33 33 33 33 34 34 35 36 36 37 38 39 40 41 41 42 43 44 45 46 47 48 49 49 50 51 51 51 51 50 49 48
30 30 31 31 31 32 33 34 34 35 35 34 35 35 35 36 36 36 37 37 38 39 40 40 41 42 43 44 44 45 46 46 47 48 49 50 51 51 51 51 50 49 48 47
34 34 34 34 34 33 34 35 36 37 37 37 37 37 38 38 38 38 39 39 40 41 41 42 43 43 44 45 45 46 46 47 48 49 49 50 50 51 50 50 49 48 47 46
36 37 37 37 36 36 36 37 38 39 39 39 40 40 40 40 40 40 41 41 42 43 43 44 44 44 45 45 46 46 47 47 48 49 50 50 50 50 50 49 48 47 46 45
37 37 37 37 37 37 38 38 39 40 41 41 41 41 41 41 42 42 42 43 43 44 45 45 45 45 46 46 46 47 47 48 49 49 49 50 50 49 49 48 47 47 46 44
39 39 39 39 39 39 40 40 41 41 42 42 41 42 42 43 43 43 43 44 44 45 45 45 46 46 46 47 47 47 48 49 49 49 49 49 49 49 48 48 47 46 45 43
38 38 39 40 40 40 41 41 42 42 42 42 41 42 42 43 43 43 43 44 44 45 45 46 46 46 47 47 47 48 48 49 49 48 48 48 48 48 48 47 46 45 44 41
38 38 39 40 41 42 42 42 42 42 42 42 42 42 42 42 43 43 43 44 44 44 45 45 45 46 47 47 47 48 48 48 48 48 47 47 47 47 47 46 45 44 42 39
38 39 39 40 41 42 42 42 42 42 43 43 43 43 43 43 43 43 44 44 44 44 44 44 45 46 47 47 47 48 48 47 47 46 46 46 46 46 45 44 43 41 39 37
38 40 41 42 43 43 43 43 43 42 42 43 43 43 44 44 43 43 44 44 44 44 44 44 45 46 46 47 47 47 46 46 45 45 45 45 44 44 43 42 40 39 37 34
40 41 42 43 44 45 45 44 44 44 43 43 43 43 43 43 43 43 43 43 43 43 43 44 45 46 46 45 45 45 44 44 44 43 43 43 42 41 40 39 37 36 34 31

GEFSNGP_500_meanwind_120.txt.gz
Wind_Speed
6 7 7 8 7 6 5 4 4 4 4 4 4 4 4 4 4 3 3 4 4 3 3 2 1 1 3 3 3 4 5 6 8 11 14 14 16 18 21 22 24 25 26 28
4 5 5 6 6 6 5 4 3 3 3 4 4 4 5 5 5 5 5 5 5 5 4 3 3 3 3 3 2 3 5 6 8 10 12 14 16 16 18 20 21 23 24 26
3 3 4 4 4 5 5 5 4 4 4 4 5 4 4 5 5 6 6 5 4 4 5 4 4 4 5 5 5 5 6 7 8 9 11 12 14 15 17 19 20 22 24 26
1 2 3 3 4 4 5 5 5 4 4 5 5 5 5 5 5 5 6 6 5 5 4 5 5 6 6 7 7 8 8 9 10 11 12 13 15 17 18 19 21 23 26 28
1 2 2 3 4 4 5 5 5 5 5 5 5 5 6 5 5 6 6 7 7 6 6 6 7 8 8 9 9 10 10 10 11 12 14 15 17 19 21 23 24 26 29 30
4 4 5 5 5 5 4 5 5 6 6 7 6 6 6 6 7 7 8 8 8 9 9 10 10 11 11 11 11 12 12 13 14 16 17 18 19 21 23 25 27 29 30 32
6 6 6 6 5 5 5 5 5 6 7 7 7 7 7 7 8 9 10 10 11 11 12 13 13 13 14 14 14 14 15 16 17 19 20 22 24 25 26 28 29 31 32 34
7 7 7 8 8 7 7 7 7 7 8 8 9 9 9 9 10 10 11 12 13 13 14 14 15 15 15 16 17 17 18 19 21 23 24 25 27 28 29 30 31 33 34 35
10 9 9 9 10 9 10 10 10 10 10 11 11 11 11 11 12 13 14 14 15 15 16 16 17 18 18 19 20 21 22 23 24 25 27 28 29 30 31 32 34 35 37 37
13 13 13 12 12 12 12 13 13 13 13 13 13 12 12 13 13 14 15 16 18 19 19 20 20 21 22 22 23 25 26 27 28 29 30 31 31 32 33 34 36 37 38 39
15 16 16 15 16 16 16 16 15 15 16 16 16 15 15 15 16 17 18 19 20 21 22 23 24 24 25 26 26 27 28 29 31 32 32 33 34 34 35 37 38 38 39 40
16 17 17 18 18 18 19 19 19 18 18 18 18 18 19 19 20 21 22 22 23 23 24 25 26 26 27 27 28 29 30 31 33 33 34 35 36 37 38 38 39 39 40 40
19 19 19 20 20 21 20 20 21 20 20 20 20 21 21 22 23 24 24 25 26 26 26 27 28 29 29 29 30 31 32 32 33 34 35 37 38 39 39 40 41 41 41 41
22 21 21 21 22 23 23 22 22 22 22 23 23 24 24 25 25 26 27 27 28 29 29 29 30 30 31 32 33 33 34 34 35 36 37 38 39 40 41 41 41 42 42 43
25 24 23 22 22 23 23 23 23 24 24 25 25 26 27 27 28 29 30 30 31 31 31 31 31 32 33 34 35 36 36 37 37 38 39 40 41 41 42 42 42 42 43 44
28 27 25 25 24 25 24 24 25 26 27 27 28 29 29 30 31 32 33 33 33 33 33 33 33 34 35 36 37 37 38 39 39 40 41 41 42 42 42 42 43 43 44 44
29 29 28 28 27 27 27 27 27 28 28 29 29 30 31 32 33 34 34 35 35 35 35 35 36 36 37 38 38 39 40 40 41 42 42 43 43 43 43 43 44 44 45 45
30 30 30 30 29 29 29 29 29 30 30 31 31 32 33 34 34 35 35 36 36 37 37 38 38 38 39 39 40 41 41 42 42 43 44 44 44 44 44 44 44 45 45 45
32 31 31 31 30 30 30 30 31 31 32 33 33 34 35 35 36 37 37 37 38 38 39 40 40 41 41 42 42 43 43 43 43 44 44 45 45 45 45 45 45 45 45 44
32 32 32 32 31 31 31 31 31 32 33 34 34 35 35 36 37 38 38 39 39 40 40 41 41 42 42 43 44 44 44 44 44 45 45 46 46 45 45 45 44 44 44 43
32 32 32 32 32 32 32 33 33 34 34 34 35 36 36 37 38 39 39 40 40 41 41 42 43 43 44 44 44 45 45 45 45 45 46 46 46 45 45 44 44 43 43 42
33 33 33 33 33 33 33 34 34 35 36 36 36 37 38 39 39 40 40 41 42 42 43 43 44 44 45 45 45 45 45 45 45 45 45 45 45 44 44 44 43 43 42 42
34 33 33 33 33 33 34 34 35 36 37 38 38 39 39 40 40 41 41 42 43 44 44 44 44 44 44 44 44 44 44 44 44 45 45 45 44 44 43 43 42 42 41 41
34 33 33 34 34 34 34 35 36 37 37 38 39 39 40 40 40 41 42 43 44 44 44 44 44 44 43 43 43 43 43 43 43 44 44 43 43 42 42 41 41 41 40 40
34 34 34 35 35 35 35 36 37 38 38 38 39 40 40 40 41 41 42 42 42 43 43 43 42 42 42 42 42 42 42 42 42 42 42 42 41 41 41 41 40 40 39 38
35 34 34 35 35 35 35 36 37 37 38 38 38 39 40 41 41 41 41 42 42 42 42 41 41 41 41 41 41 41 41 41 41 41 40 40 40 39 40 40 39 38 37 36
35 34 34 35 35 36 36 37 37 38 38 39 39 39 40 40 41 41 41 41 41 41 41 41 41 40 40 40 40 40 40 40 40 40 39 39 39 39 38 38 37 36 36 35

GEFSNGP_500_meanwind_126.txt.gz
Wind_Speed
5 5 5 5 5 6 6 7 6 6 7 7 7 8 8 7 7 7 7 7 8 8 8 8 7 7 7 5 5 6 6 8 9 10 11 12 13 14 15 16 18 20 22 25
6 6 6 6 6 6 7 7 7 6 6 7 7 7 8 8 7 7 7 7 7 8 7 7 7 7 7 6 6 7 7 8 8 9 10 12 13 14 15 16 18 21 23 25
6 7 7 6 6 7 7 8 8 6 6 6 7 7 7 8 7 7 7 7 6 7 7 7 8 8 9 8 8 8 8 8 9 10 12 13 14 15 16 18 20 22 24 25
8 8 7 7 7 8 8 8 8 7 6 7 7 7 8 8 8 8 8 7 7 8 8 8 9 9 10 10 10 10 11 10 11 12 13 14 15 16 18 19 21 22 25 26
9 9 8 8 8 9 9 9 8 8 8 8 8 7 8 8 9 8 8 7 7 8 9 9 10 10 11 11 11 12 12 12 13 13 14 15 16 16 18 19 21 23 25 26
10 10 9 9 9 10 10 9 9 9 9 9 9 8 8 9 9 9 9 9 9 10 10 11 11 12 12 12 13 13 13 14 14 15 16 17 17 18 19 21 22 24 26 27
12 12 11 11 11 12 12 11 11 11 11 11 10 10 10 10 10 10 10 11 11 12 12 12 13 13 13 14 15 16 16 17 18 19 19 20 21 22 22 23 24 25 27 28
16 15 15 14 14 14 13 13 13 13 13 13 13 12 12 11 11 11 11 12 12 12 13 13 14 15 16 16 17 18 19 20 20 21 22 22 23 23 24 25 26 28 29 30
19 18 18 18 18 17 16 16 15 15 15 16 16 15 15 14 14 14 13 13 14 14 15 15 16 17 18 18 19 20 21 21 22 24 25 25 25 26 27 27 28 29 30 30
22 21 22 21 21 20 20 20 19 19 18 18 18 18 17 17 16 17 17 17 17 17 17 18 19 19 20 20 21 23 23 24 26 27 28 28 28 29 30 31 31 32 33 34
24 23 24 23 24 23 23 23 22 22 22 21 20 20 20 19 19 19 19 20 20 20 20 21 21 22 23 23 24 25 26 27 28 29 30 30 31 32 33 33 34 34 35 36
26 26 27 26 25 25 25 25 25 25 25 25 24 23 23 22 22 21 22 22 23 23 24 24 24 25 25 26 27 28 30 31 31 32 32 33 33 33 34 35 35 36 37 37
29 29 29 28 28 28 28 27 28 28 27 27 27 26 26 25 25 25 25 25 25 25 26 26 27 27 28 29 30 31 32 33 34 34 34 34 35 35 35 36 37 38 38 39
31 32 31 30 30 30 30 30 30 29 29 29 29 29 28 28 28 27 27 28 28 28 28 29 29 30 31 31 32 33 34 35 35 36 36 36 37 37 37 38 39 40 40 40
33 34 32 32 32 31 31 31 30 30 30 30 30 31 31 31 31 31 30 30 30 30 30 31 31 32 33 34 35 36 37 37 38 38 38 39 39 39 39 40 40 41 41 41
35 34 34 33 33 32 32 32 31 31 31 32 32 32 32 32 32 32 32 31 31 32 33 33 34 35 35 36 37 38 39 40 40 40 40 41 41 41 41 42 42 42 42 42
35 34 35 34 33 33 33 33 32 32 32 32 33 33 33 33 33 33 32 33 33 34 35 36 36 37 38 38 39 40 41 41 42 42 42 42 42 43 43 43 43 43 43 43
36 36 36 35 34 34 33 34 34 34 33 34 34 34 34 34 34 34 34 34 35 36 36 37 37 38 39 40 41 41 42 43 43 43 43 43 44 44 44 44 44 44 44 44
38 38 37 36 35 34 33 33 33 34 34 34 34 34 34 34 34 34 35 35 36 36 37 38 39 40 40 41 42 43 43 44 44 44 44 44 45 45 45 45 45 45 45 45
38 38 37 36 35 35 34 34 34 35 34 34 34 33 33 34 34 35 36 36 37 38 39 40 41 41 42 42 43 44 44 44 45 45 45 44 44 44 45 45 45 45 45 45
38 38 38 36 36 36 36 36 36 35 35 35 35 35 35 35 35 36 36 37 38 39 40 40 41 42 42 43 43 44 44 44 44 44 44 44 43 43 44 44 44 44 44 44
39 39 38 37 36 36 37 37 37 37 36 36 36 36 37 37 37 37 37 38 39 40 40 41 42 42 42 43 44 44 43 43 43 43 43 43 42 43 43 43 43 43 43 42
39 39 38 37 37 37 37 37 37 37 37 36 36 37 37 38 37 37 38 39 40 40 41 42 43 43 43 43 43 43 43 43 43 42 42 42 42 42 42 42 42 42 41 41
39 39 39 38 37 37 36 36 36 37 37 36 36 36 36 37 37 37 38 38 39 40 41 42 42 43 43 43 43 43 43 42 41 41 42 42 42 41 41 41 41 41 40 40
39 39 39 37 37 36 36 36 36 36 35 35 35 35 35 35 36 37 37 38 39 40 40 41 42 42 42 42 42 42 41 41 41 41 42 41 40 40 40 40 40 40 39 38
38 39 38 37 37 36 36 36 36 35 35 34 34 34 34 35 35 36 36 37 38 39 40 40 40 40 40 41 41 41 41 41 41 40 40 39 39 39 39 39 39 38 37 37
38 38 39 38 38 37 36 36 36 35 35 35 35 35 35 35 36 36 37 37 38 39 39 39 39 39 39 40 40 40 40 40 39 39 38 38 38 37 37 36 35 35 35 34

GEFSNGP_500_meanwind_132.txt.gz
Wind_Speed
7 7 7 7 7 7 7 7 7 6 6 6 7 7 7 7 7 8 7 7 7 6 6 6 5 6 7 7 7 8 8 9 10 10 10 12 13 14 16 18 19 20 21 22
8 8 8 7 8 8 8 8 7 6 6 7 7 8 8 7 8 7 7 7 7 7 7 6 6 6 7 7 7 8 9 9 9 10 11 12 12 13 14 16 17 19 20 22
8 8 8 8 8 9 9 9 9 8 8 8 9 10 9 8 8 8 8 8 9 9 9 8 7 7 7 7 7 7 8 9 10 10 9 10 12 13 15 16 17 18 20 21
10 9 9 9 9 9 10 10 10 10 10 10 10 10 10 9 9 9 9 10 11 11 10 10 9 8 8 8 8 8 8 8 8 9 10 11 13 15 16 17 18 19 21 22
12 11 10 10 11 11 11 10 11 11 11 10 11 11 12 11 11 11 11 11 11 10 10 10 10 10 9 9 9 9 9 9 11 12 13 14 15 16 17 19 20 21 22 24
15 14 13 13 13 13 14 13 13 13 12 12 12 12 11 11 12 12 12 12 12 12 11 11 11 11 11 11 11 11 12 13 13 14 15 16 17 18 19 20 21 22 24 25
18 18 17 17 16 17 16 16 15 15 15 14 14 14 14 13 13 13 13 13 13 13 13 13 13 13 14 13 14 14 15 15 16 17 17 18 19 20 21 23 24 25 26 27
22 21 21 21 20 20 20 19 19 18 18 18 17 17 17 16 16 16 15 15 15 15 15 15 15 16 16 16 16 16 17 18 19 19 20 20 21 23 24 25 26 27 28 29
25 24 25 24 24 23 23 23 22 22 22 21 20 20 19 19 19 19 18 18 18 18 18 18 18 18 18 19 19 19 19 20 21 21 21 23 24 25 27 27 28 28 29 30
28 26 27 27 26 26 26 25 25 25 24 24 23 23 22 22 22 22 21 21 21 21 21 21 21 21 21 21 22 22 22 23 23 23 24 26 27 28 28 29 29 30 30 31
31 29 29 29 29 29 29 28 27 27 26 25 25 25 25 25 25 24 24 24 24 24 24 23 23 24 24 24 25 25 25 26 26 27 28 29 29 30 31 32 32 33 33 33
33 32 33 31 31 31 31 30 30 29 28 28 28 28 27 27 27 27 26 26 26 26 26 26 26 26 27 27 27 27 28 28 29 29 30 31 32 33 34 34 35 35 36 36
37 36 35 34 33 33 33 32 31 30 30 30 29 29 29 29 29 28 28 28 28 29 29 29 29 29 30 29 30 30 30 30 31 31 32 34 35 36 37 37 38 38 39 39
40 39 37 36 36 35 35 34 33 31 31 30 30 30 30 30 30 30 30 31 31 31 31 32 32 32 32 32 32 31 32 32 33 34 35 36 37 38 38 39 39 40 41 41
41 40 39 38 38 37 36 35 34 32 32 31 31 31 31 31 30 30 31 31 32 32 33 33 34 34 34 33 33 33 34 34 35 36 37 38 38 39 40 40 40 41 41 41
41 41 40 39 38 37 36 35 35 33 33 33 33 32 32 32 32 32 32 32 33 33 34 35 35 35 34 34 34 35 35 36 37 37 38 39 40 41 41 41 41 42 42 42
41 40 39 39 38 38 37 36 35 35 34 34 34 34 33 33 34 34 34 34 34 34 34 34 34 35 35 35 35 36 37 37 38 39 40 41 41 42 42 42 42 42 42 42
42 41 40 39 38 37 37 37 36 36 35 35 34 34 33 34 34 34 34 34 34 34 34 34 34 35 36 36 37 37 38 38 39 40 41 42 42 42 42 42 42 42 42 43
41 41 40 39 38 37 36 36 36 36 36 36 35 34 34 34 34 34 34 34 34 35 35 35 35 36 36 37 38 38 38 39 39 40 41 42 42 41 41 41 41 41 42 43
41 40 39 39 38 37 37 37 37 37 37 36 36 35 35 35 35 35 35 34 34 35 35 35 36 36 37 38 38 39 39 40 40 40 41 41 41 40 40 40 41 41 41 42
40 39 39 39 38 38 37 37 37 37 37 37 36 36 36 36 35 35 36 36 36 36 36 36 36 37 38 38 38 39 39 39 39 39 40 40 40 40 40 39 40 40 41 41
39 38 38 38 38 38 38 37 37 36 36 36 36 36 36 36 35 35 35 36 36 36 37 37 37 37 38 37 37 38 38 38 39 39 40 40 39 38 38 38 39 40 40 41
38 37 37 37 37 37 37 37 37 36 35 35 35 36 35 35 35 34 34 35 35 35 36 36 37 37 37 36 36 37 37 38 38 39 39 38 38 37 37 38 38 39 39 39
37 36 37 37 37 36 37 37 37 37 36 36 35 35 35 35 34 34 34 34 34 34 35 35 35 35 35 35 35 35 36 36 36 37 37 36 36 36 36 37 37 38 38 37
37 37 36 36 36 37 37 37 37 37 37 36 36 36 36 35 34 34 34 33 33 33 34 34 34 34 34 33 33 34 34 35 35 36 36 35 35 35 35 36 36 36 36 36
40 39 38 38 37 37 37 36 37 37 37 37 36 36 35 35 34 34 33 33 33 33 33 33 33 33 32 32 32 33 34 34 35 35 35 34 34 34 34 34 35 35 35 34
41 40 39 38 38 37 37 36 36 36 36 35 34 34 34 34 33 33 32 32 32 32 32 32 32 32 32 32 32 33 34 34 34 34 34 33 33 33 33 33 33 34 33 33

GEFSNGP_500_meanwind_138.txt.gz
Wind_Speed
13 13 13 13 13 14 14 14 14 12 13 12 12 13 14 15 16 17 17 18 18 17 17 17 17 17 17 17 17 17 17 18 18 19 19 20 20 20 20 21 21 22 23 23
14 15 14 14 15 15 16 16 15 15 15 15 15 16 17 17 18 18 18 18 17 17 17 17 16 16 16 16 16 16 16 16 17 17 17 18 18 18 19 19 19 20 20 22
16 17 17 16 16 17 17 17 17 17 17 18 18 18 18 19 19 19 18 17 17 17 17 17 17 17 17 17 17 17 16 16 15 16 16 17 17 18 19 20 20 22 22 23
19 19 19 18 17 17 17 18 18 19 19 19 19 19 19 20 20 20 20 20 20 20 19 19 18 18 17 17 17 17 17 17 17 17 17 17 18 18 19 20 21 22 23 24
22 21 20 20 20 20 20 20 20 20 20 20 20 20 21 21 21 22 21 22 22 21 20 20 19 18 17 17 18 18 18 18 18 18 18 18 19 20 21 21 22 23 24 25
25 24 23 23 23 23 23 23 22 22 21 21 21 21 21 21 22 22 22 22 21 21 20 19 19 18 18 18 19 18 18 19 19 19 20 20 21 21 21 22 22 23 24 26
27 27 26 26 26 26 26 26 25 24 24 24 23 23 22 22 22 22 22 22 21 21 21 20 20 19 19 19 19 19 19 20 21 21 22 22 22 22 22 23 23 24 26 27
31 31 30 30 30 30 30 29 29 28 27 27 26 26 25 24 24 23 23 23 22 22 22 22 21 21 21 21 22 22 22 22 22 23 23 23 23 23 23 24 25 26 27 29
36 35 34 35 35 35 34 33 32 31 31 30 29 28 27 27 27 26 26 25 25 24 24 24 24 24 24 24 24 24 24 24 24 25 25 25 25 25 25 26 26 27 28 29
39 37 38 38 38 38 37 36 35 35 34 33 32 31 30 30 30 29 28 28 27 27 27 26 27 26 26 26 26 26 26 26 26 27 26 27 27 27 28 28 29 30 31 31
43 41 41 40 40 40 40 39 38 37 37 36 35 34 33 33 32 32 31 30 30 29 29 29 29 28 28 28 28 28 29 29 29 29 29 29 29 29 30 30 31 32 33 33
45 44 45 42 41 41 41 40 40 40 39 39 38 37 35 35 34 34 33 33 32 32 31 31 31 31 31 30 30 30 30 30 30 30 31 31 32 32 32 32 33 33 34 35
46 46 47 45 44 43 43 42 41 41 40 39 39 38 37 36 36 35 35 35 34 34 34 34 34 33 33 33 32 32 33 33 33 33 33 33 33 34 34 34 34 35 36 37
47 48 47 46 46 45 45 44 43 42 42 41 40 39 38 37 37 36 36 36 36 36 36 36 36 36 36 35 35 34 34 34 34 34 35 35 35 35 35 35 36 37 37 38
48 49 49 47 47 46 46 45 44 43 43 42 42 41 40 39 37 36 36 36 36 36 37 37 37 37 37 38 37 37 36 36 36 36 36 36 37 36 36 36 37 37 38 38
49 49 49 48 47 46 46 45 44 43 43 42 42 41 40 39 38 37 37 37 37 37 37 37 37 37 38 38 38 38 38 37 38 37 37 37 37 37 37 37 38 38 38 38
48 48 48 47 46 45 44 43 43 43 42 42 41 41 40 40 39 39 38 38 38 38 38 38 38 39 39 38 38 38 38 38 37 37 37 37 37 37 37 38 38 38 38 39
46 46 46 46 45 44 43 42 41 41 41 41 41 41 41 41 40 40 40 39 39 39 39 39 39 39 39 39 38 38 37 37 37 37 37 37 37 37 37 37 38 38 38 39
44 44 44 44 44 43 42 42 41 41 41 40 40 40 40 41 41 40 40 40 40 39 39 39 39 39 39 39 39 38 38 38 37 37 37 38 38 37 37 37 37 37 38 39
43 43 43 43 42 41 41 41 41 40 40 40 39 39 40 40 40 40 40 40 40 40 40 40 40 39 39 39 39 38 38 38 38 38 38 38 38 38 37 37 37 38 38 38
42 42 42 42 41 40 40 40 39 38 38 39 39 39 39 39 40 39 39 39 39 39 39 39 39 39 38 38 38 37 37 37 38 38 37 37 37 37 37 37 37 38 38 38
42 42 42 41 40 40 39 40 40 40 39 39 39 39 39 39 40 40 39 39 39 39 39 38 38 38 38 38 37 36 36 36 36 36 36 36 36 37 37 37 37 37 37 37
42 41 41 40 40 40 40 40 40 40 40 40 39 39 39 39 39 39 39 39 39 39 39 38 38 37 37 36 35 34 34 34 34 35 35 36 36 36 36 36 36 37 36 36
43 43 42 41 41 41 40 40 39 39 39 39 38 38 38 38 38 38 39 39 38 38 37 36 36 35 35 34 34 34 34 34 34 34 34 35 35 35 35 35 35 35 35 35
45 44 44 44 43 42 41 40 39 38 38 38 38 38 38 37 37 37 37 37 38 37 36 36 35 34 34 33 33 34 34 33 33 33 33 34 34 33 33 34 34 34 34 34
45 45 44 43 42 42 41 41 40 38 38 38 38 37 37 37 37 37 37 36 36 35 35 35 34 34 33 33 33 33 33 33 32 32 32 32 32 32 32 32 32 33 33 34
45 44 43 43 42 42 41 40 39 38 37 37 36 36 35 35 35 35 35 35 34 33 33 33 33 32 32 32 32 32 32 32 32 31 31 31 31 31 31 31 31 32 32 32

GEFSNGP_500_meanwind_144.txt.gz
Wind_Speed
13 13 13 13 14 15 15 15 15 14 15 16 17 17 17 17 17 18 19 20 21 22 22 22 23 23 24 24 24 25 26 26 26 26 26 26 26 26 27 27 27 27 27 27
16 17 16 15 16 16 16 16 16 16 17 18 19 19 19 19 20 20 21 22 23 23 23 23 23 24 24 24 24 24 24 25 25 25 24 25 25 25 25 26 26 26 26 26
19 20 19 18 18 19 19 18 19 19 20 21 21 21 22 23 23 24 24 24 24 24 24 24 24 24 25 25 25 25 24 24 24 24 25 26 26 26 26 25 25 26 26 26
22 22 22 21 21 21 21 21 22 22 23 23 23 23 23 24 25 25 25 25 25 25 25 25 25 25 25 25 25 25 24 24 24 24 25 26 26 26 26 26 26 27 27 27
25 24 24 24 24 24 25 24 24 25 25 25 25 25 25 26 26 27 26 26 26 26 26 26 26 26 27 26 26 26 25 25 24 24 24 25 26 26 27 27 26 27 27 27
29 28 27 26 26 27 27 28 27 27 27 26 27 27 26 27 27 27 27 27 27 27 27 27 27 27 26 27 26 26 26 26 26 25 25 25 25 26 26 27 26 27 27 28
31 32 31 31 30 30 30 31 30 30 30 29 29 29 28 28 28 27 27 28 28 28 28 28 28 27 27 27 27 27 27 27 27 27 27 27 26 26 26 26 26 27 27 28
34 34 34 34 34 33 33 33 33 33 33 33 32 32 31 30 30 30 29 30 30 30 29 29 28 28 27 27 27 27 26 26 26 26 27 27 27 27 27 27 28 28 28 29
37 37 37 38 38 38 37 37 37 37 36 36 36 35 34 33 33 33 32 32 32 32 32 31 30 29 28 28 28 28 27 27 28 28 28 28 28 28 28 28 29 29 29 29
40 39 40 41 41 41 42 42 41 40 40 39 38 37 36 36 36 35 35 34 34 34 34 33 32 31 30 30 30 29 29 29 29 29 29 29 29 29 29 29 29 30 30 30
43 42 43 42 43 43 44 44 43 42 41 40 40 39 39 38 37 37 36 36 36 35 35 34 33 32 31 31 31 31 31 31 31 31 31 31 30 30 30 30 31 31 32 32
45 45 46 44 43 44 45 44 44 43 42 41 41 41 41 40 39 39 38 37 37 36 35 35 34 33 33 33 33 32 32 32 32 32 32 32 32 32 32 32 32 33 33 33
47 47 47 46 46 46 46 45 44 44 44 42 42 42 42 41 41 40 40 39 38 38 37 36 35 35 35 34 34 34 34 34 34 34 34 33 33 33 33 33 33 33 33 33
48 49 48 47 47 46 46 46 45 45 44 44 43 43 42 42 42 42 41 41 40 39 38 38 37 36 36 36 36 36 35 35 35 35 35 34 34 34 34 34 34 34 34 34
48 49 48 47 47 46 46 46 45 44 44 43 43 43 43 42 42 42 42 41 40 39 39 38 38 38 38 38 37 37 36 36 36 36 36 36 35 35 35 35 35 35 35 35
47 48 48 48 47 47 46 45 44 43 43 43 43 42 42 42 41 41 42 42 41 40 39 39 39 39 39 39 38 37 36 36 36 36 36 36 35 35 35 35 35 35 35 35
48 48 47 47 47 46 45 44 43 43 42 43 43 42 42 41 42 42 42 41 41 40 40 40 39 39 39 38 38 37 37 36 36 35 35 35 35 35 35 35 35 35 35 36
48 47 47 46 45 44 43 42 42 42 42 42 42 42 42 41 41 40 40 40 39 39 39 40 39 39 38 38 38 38 37 37 36 36 35 35 35 35 35 35 35 35 35 36
44 44 44 43 42 41 40 40 40 41 41 41 41 41 40 40 39 38 38 38 38 39 39 39 39 39 39 38 38 38 37 37 36 36 35 35 35 35 35 35 35 35 35 35
43 42 42 41 41 40 40 39 39 39 39 40 40 40 40 39 38 37 37 37 37 38 38 37 37 38 38 38 37 37 36 35 35 35 35 34 35 34 34 34 34 34 34 34
43 42 41 40 40 40 40 39 39 39 40 40 39 39 39 39 38 38 37 37 36 37 37 37 36 36 36 37 36 36 35 35 35 34 34 34 34 33 33 33 33 33 33 34
43 43 42 41 41 41 40 40 40 40 39 39 39 40 40 39 39 39 39 38 37 37 37 36 36 36 36 36 36 35 35 34 34 34 34 33 33 33 32 32 32 33 33 33
43 43 42 42 42 42 41 40 40 40 40 40 40 40 40 40 40 40 39 38 38 37 37 36 37 37 37 36 36 36 35 35 34 34 34 33 33 32 32 32 32 32 32 33
44 44 44 43 43 43 42 41 41 40 40 40 40 40 40 40 39 38 38 38 37 37 36 36 36 36 36 35 34 34 35 35 35 34 34 33 33 32 32 31 32 32 32 32
46 46 45 45 44 44 44 44 43 42 42 41 40 39 39 39 38 37 37 36 35 35 34 34 34 34 34 33 33 33 33 33 33 34 34 33 33 32 31 31 31 31 31 31
46 46 45 45 45 44 45 44 44 42 41 39 38 38 37 37 37 36 35 34 33 33 32 32 32 32 31 31 31 30 30 31 30 31 31 31 30 30 30 30 30 30 29 29
45 44 44 44 44 44 44 44 42 40 39 37 36 36 35 35 35 35 33 32 31 31 31 31 30 29 29 28 28 28 28 28 28 29 29 29 29 29 28 29 29 29 28 28

GEFSNGP_500_meanwind_150.txt.gz
Wind_Speed
19 19 19 19 20 21 21 21 21 20 21 21 22 22 22 23 23 23 24 25 26 26 26 27 27 28 29 30 31 32 32 33 34 34 34 34 35 36 37 38 38 38 38 37
21 22 22 22 22 23 23 23 23 22 22 23 24 24 23 24 25 25 26 27 27 27 28 28 29 29 30 31 32 32 33 33 34 34 35 35 35 36 37 37 37 37 37 36
24 25 25 23 23 24 25 25 25 25 25 26 26 26 26 26 27 28 28 29 29 30 30 31 31 32 32 32 32 33 33 34 35 35 36 36 36 36 36 36 36 35 35 36
28 28 28 27 26 27 27 27 27 28 28 28 29 29 29 29 30 29 30 30 31 31 32 33 33 33 33 33 33 34 34 35 36 35 35 35 35 35 36 35 35 35 35 34
32 32 31 30 29 31 31 30 31 31 30 31 31 31 32 32 32 32 32 33 33 33 34 35 35 35 34 34 35 35 34 34 34 34 34 35 35 35 35 35 35 35 34 34
36 36 36 33 33 33 34 34 33 33 33 33 33 33 33 34 34 35 35 35 35 35 35 36 36 36 36 36 35 35 35 35 35 35 35 35 35 35 35 35 34 34 34 34
38 39 38 37 37 37 37 37 36 35 35 35 36 36 36 36 36 36 37 37 36 36 36 36 36 36 36 37 37 37 36 36 36 36 36 36 36 36 35 35 35 35 35 34
39 39 39 39 39 39 39 39 39 39 38 39 38 38 38 38 38 38 38 39 38 38 38 38 38 38 38 38 38 38 38 37 37 37 37 37 37 36 36 35 35 35 35 35
41 40 40 41 42 42 42 42 41 41 41 41 41 40 40 40 39 40 40 41 41 41 40 40 40 39 39 39 39 38 38 38 38 38 38 38 38 37 36 35 34 35 35 35
44 42 42 43 44 43 43 43 43 43 43 43 43 42 42 41 41 41 41 42 42 42 42 42 41 41 41 40 40 40 39 39 38 38 38 38 37 37 36 36 36 35 35 35
46 45 46 46 45 45 46 46 46 45 45 45 44 44 43 43 42 42 42 43 43 43 43 43 43 42 41 41 41 40 39 39 39 38 38 37 37 37 37 37 37 36 36 36
48 47 48 47 46 47 47 47 47 47 46 46 46 46 45 44 44 44 44 44 43 43 43 43 43 43 42 42 41 40 39 39 39 39 39 38 38 37 37 37 37 37 37 37
50 50 50 49 49 49 48 48 48 48 48 47 47 47 47 46 45 45 45 45 44 44 43 43 43 43 43 43 43 42 41 40 40 40 40 39 39 38 38 37 37 37 37 37
51 52 51 50 50 49 50 49 49 49 48 48 48 48 48 47 46 46 45 45 45 44 43 43 42 42 42 42 42 42 42 42 41 40 40 39 39 39 38 37 36 36 36 36
51 52 52 51 51 50 50 50 50 49 49 48 48 47 47 47 46 45 45 45 45 44 43 43 42 42 42 42 42 42 41 41 40 40 39 39 39 38 37 36 35 36 36 36
50 51 51 51 50 50 50 50 50 49 48 47 47 47 46 46 45 45 45 45 44 43 43 43 42 42 42 42 42 42 41 40 40 39 39 38 38 37 36 36 35 35 35 35
50 49 49 49 49 49 49 49 48 47 47 46 45 45 45 44 44 44 43 43 42 42 42 42 41 41 41 40 40 41 40 39 39 39 38 38 38 37 37 36 36 35 35 35
49 49 48 48 48 47 47 47 47 46 45 44 44 44 43 43 42 42 42 42 41 41 41 41 40 40 40 40 40 39 39 39 39 38 38 38 37 37 37 36 36 35 34 34
48 48 47 47 47 47 46 46 46 45 44 44 43 43 43 42 42 41 42 41 41 41 41 40 40 40 40 39 39 39 38 38 38 38 38 38 37 37 37 36 36 35 35 34
47 46 47 47 46 46 46 46 45 45 45 45 44 43 43 43 42 42 42 41 40 40 40 40 40 40 39 39 39 38 38 38 38 37 37 37 37 37 36 36 36 35 35 34
44 45 45 45 45 45 45 45 45 45 45 45 44 44 43 43 43 42 42 41 40 41 41 41 40 40 40 39 38 37 37 37 37 37 37 37 36 36 35 35 35 35 34 33
45 45 45 45 45 44 44 45 46 46 45 45 45 44 44 43 42 42 42 42 42 42 41 41 40 40 39 39 38 37 37 37 37 37 37 36 35 34 34 33 33 33 32 32
46 46 46 46 47 46 45 45 46 46 46 45 45 45 44 44 43 43 42 42 42 41 40 40 39 39 38 38 38 37 37 37 37 36 35 35 34 33 33 32 31 31 31 31
47 48 48 48 48 48 48 47 47 47 46 46 45 44 44 43 43 42 42 41 40 39 39 39 38 37 37 37 37 36 36 36 36 35 34 33 33 32 31 31 30 30 29 29
48 48 49 49 49 48 48 48 48 47 47 46 45 43 43 42 41 40 40 39 38 38 38 37 36 36 35 35 35 34 34 33 33 33 33 32 31 30 30 29 29 28 27 27
47 47 47 47 48 48 49 49 49 47 47 46 45 43 42 40 39 38 38 37 36 36 36 36 35 34 33 32 32 32 32 31 31 31 30 30 30 29 28 27 27 26 25 25
47 47 47 46 46 46 46 46 46 45 44 44 42 41 40 39 38 37 36 36 35 35 34 34 32 31 30 30 30 30 30 29 28 28 27 27 27 27 26 26 25 24 24 24

GEFSNGP_500_meanwind_156.txt.gz
Wind_Speed
19 19 19 19 19 20 20 21 21 20 21 21 22 23 24 25 26 27 27 28 29 30 31 32 33 33 34 35 35 36 36 37 37 37 38 38 39 39 40 40 40 41 41 42
22 22 22 22 22 23 23 23 24 23 23 24 25 26 26 27 28 28 29 30 30 31 31 32 33 34 35 36 37 37 38 38 39 39 39 39 40 40 40 41 41 42 42 42
25 25 25 25 24 25 25 26 26 25 25 27 27 29 29 29 30 31 31 32 32 32 33 34 35 35 36 37 38 39 39 39 40 40 40 40 41 41 41 41 41 42 43 43
30 29 28 27 27 27 28 28 28 28 28 29 30 30 31 32 32 32 33 34 34 34 34 35 36 37 37 38 39 39 40 41 41 41 41 41 41 41 41 42 42 43 43 44
32 32 30 29 29 30 31 31 31 31 31 32 32 32 33 34 34 35 35 36 36 37 37 38 39 39 40 40 41 41 41 42 42 42 42 42 42 42 42 42 43 43 44 44
35 35 33 31 32 33 33 33 33 33 34 34 34 34 34 36 37 37 38 38 38 39 39 40 41 41 42 42 43 43 43 43 42 43 43 43 43 43 43 44 44 44 44 45
37 38 37 35 35 36 36 36 36 36 36 36 36 36 37 38 39 39 40 40 41 41 41 42 42 43 43 43 42 43 43 43 43 43 43 43 43 43 44 44 45 45 45 44
40 41 39 38 38 38 38 38 38 38 38 38 38 39 39 40 41 41 41 42 43 43 43 43 44 43 43 42 43 43 43 43 43 43 43 43 44 44 44 44 45 45 44 44
43 42 41 41 41 41 41 40 40 40 40 40 41 41 42 42 43 43 43 43 43 43 42 43 43 43 43 43 44 44 44 44 44 44 44 44 44 44 45 45 45 45 44 43
44 43 43 43 44 44 44 43 43 42 42 43 43 43 44 44 45 45 44 44 44 43 43 44 44 45 45 45 45 45 45 45 45 45 45 45 45 45 45 45 45 44 43 43
46 45 45 45 46 46 46 45 45 45 45 45 45 45 45 45 45 44 44 45 45 45 45 45 46 46 46 46 46 46 46 46 46 46 46 46 46 45 45 45 45 43 43 42
47 46 48 47 47 47 47 47 47 46 46 47 47 46 46 46 46 45 45 45 45 46 46 46 46 46 46 46 46 46 46 45 46 46 46 45 45 44 44 43 43 42 42 42
48 49 49 48 48 48 49 48 48 48 48 48 47 47 47 47 47 47 46 46 46 46 47 46 46 46 46 46 46 46 45 45 45 45 45 44 43 43 42 42 41 41 41 41
49 49 49 49 49 49 50 50 50 49 49 49 48 48 48 47 47 47 47 47 47 47 47 46 46 46 46 45 45 45 45 45 45 44 44 43 42 42 41 41 40 40 40 40
49 49 49 49 50 50 50 50 49 49 48 48 48 48 48 48 47 47 47 47 46 46 46 46 46 45 45 45 45 44 44 43 43 42 42 42 41 41 40 40 40 40 39 39
49 50 50 50 50 50 49 49 50 49 49 48 48 48 48 48 47 47 46 46 45 45 45 45 45 44 44 44 44 43 43 42 42 41 40 40 40 40 40 40 39 39 39 38
49 49 49 49 49 49 49 49 49 49 48 48 48 48 48 48 47 47 46 45 45 44 44 44 44 43 43 43 43 42 42 41 41 40 40 40 40 40 40 40 39 39 39 38
48 48 48 48 48 48 47 47 48 48 48 48 48 48 48 47 47 46 46 45 44 44 43 44 43 43 43 43 42 42 41 41 41 41 40 40 40 39 39 39 38 38 37 35
44 45 45 46 46 46 46 46 47 47 47 47 47 47 47 47 46 46 45 45 44 44 43 43 43 43 43 43 42 42 42 42 41 41 40 40 40 39 38 38 37 36 35 34
41 42 43 43 44 45 45 46 46 46 46 46 46 46 46 46 45 45 44 44 43 44 43 43 43 43 43 43 43 43 42 42 41 40 39 39 38 37 36 36 36 35 34 33
42 42 42 43 43 44 45 46 46 46 46 46 46 46 46 45 45 45 44 44 43 44 44 43 42 42 41 41 41 42 41 40 40 39 38 37 37 37 36 35 34 34 33 33
43 43 43 44 44 45 45 46 46 45 45 45 45 45 45 45 45 44 44 44 44 44 44 43 42 41 41 40 40 39 39 38 38 37 37 36 36 35 34 34 33 33 32 31
43 43 44 44 45 45 45 45 45 46 46 45 45 44 44 44 45 45 44 44 44 43 42 41 40 40 40 39 39 38 37 36 36 35 35 34 34 33 32 32 32 32 31 30
44 45 46 46 46 47 46 45 46 46 46 45 45 45 45 45 44 44 43 42 41 41 39 38 38 38 37 37 36 36 35 34 34 33 32 32 31 31 31 30 30 30 29 29
44 45 46 46 47 47 47 46 45 45 45 44 44 43 43 43 42 41 40 39 38 37 36 35 35 35 35 34 33 33 32 32 32 31 31 30 30 29 29 28 28 27 27 26
45 45 45 45 46 45 45 45 44 43 43 43 41 40 40 40 40 39 37 36 35 34 33 32 32 32 32 31 31 30 30 30 29 29 28 28 27 27 26 26 26 26 25 25
43 44 44 43 43 43 43 43 42 42 41 40 39 38 38 38 37 36 35 33 32 32 31 31 30 29 29 29 28 28 27 27 27 26 26 25 25 25 24 24 24 24 24 23